GEFSSE_prec_meanprecacc_132.txt.gz
Total_Precipitation_Accumulation
0.84 0.56 0.79 0.85 0.78 0.69 0.74 0.81 0.77 0.69 0.69 0.66 0.53 0.47 0.47 0.45 0.41 0.34 0.27 0.21 0.21 0.22 0.24 0.27 0.30 0.37 0.33 0.28 0.31 0.40 0.42 0.37 0.34 0.32 0.40 0.47 0.48 0.52 0.61 0.72 0.97 1.21 0.81
0.71 0.51 0.81 0.92 0.85 0.76 0.72 0.74 0.81 0.76 0.80 0.75 0.64 0.54 0.52 0.47 0.41 0.32 0.25 0.20 0.20 0.21 0.23 0.26 0.32 0.34 0.34 0.36 0.39 0.44 0.40 0.32 0.27 0.32 0.51 0.66 0.57 0.52 0.53 0.60 0.95 1.11 0.76
0.58 0.49 0.65 0.95 0.96 0.85 0.80 0.80 0.87 0.86 0.93 0.86 0.80 0.69 0.60 0.52 0.45 0.37 0.29 0.28 0.28 0.25 0.24 0.26 0.38 0.39 0.36 0.43 0.45 0.44 0.41 0.29 0.26 0.36 0.73 1.35 0.97 0.55 0.48 0.60 0.83 0.71 0.68
0.61 0.58 0.64 0.87 0.91 0.87 0.84 0.88 0.97 0.97 1.05 1.01 0.84 0.68 0.55 0.54 0.56 0.47 0.41 0.48 0.35 0.26 0.25 0.29 0.38 0.42 0.40 0.43 0.45 0.42 0.41 0.38 0.41 0.50 0.95 1.35 1.35 0.81 0.69 0.81 0.83 0.71 0.77
0.67 0.63 0.83 1.04 1.01 0.96 0.90 1.03 1.12 1.11 1.15 1.01 0.75 0.58 0.54 0.58 0.64 0.66 0.64 0.61 0.40 0.31 0.28 0.31 0.38 0.43 0.40 0.39 0.39 0.36 0.36 0.44 0.60 0.75 1.06 1.28 1.48 1.02 0.82 0.87 0.86 0.76 0.86
0.68 0.66 0.85 1.07 1.06 1.03 1.00 1.10 1.19 1.26 1.24 1.12 0.83 0.65 0.63 0.71 0.72 0.71 0.76 0.62 0.51 0.44 0.37 0.39 0.43 0.45 0.40 0.38 0.40 0.38 0.42 0.50 0.58 0.85 1.13 1.36 1.40 0.96 0.76 0.82 0.84 0.96 0.95
0.66 0.60 0.65 0.87 0.96 0.98 1.02 1.19 1.27 1.31 1.33 1.24 1.00 0.84 0.75 0.72 0.73 0.75 0.80 0.67 0.60 0.53 0.51 0.53 0.52 0.49 0.47 0.45 0.41 0.39 0.41 0.42 0.48 0.71 0.97 1.38 1.21 0.81 0.69 0.76 0.82 0.91 0.95
0.83 0.71 0.62 0.72 0.82 0.88 0.95 1.09 1.17 1.21 1.21 1.17 1.01 0.88 0.81 0.77 0.74 0.81 0.87 0.76 0.69 0.61 0.56 0.57 0.57 0.56 0.54 0.50 0.45 0.43 0.42 0.36 0.35 0.53 0.76 1.11 1.07 0.88 0.73 0.77 0.91 0.90 0.94
1.00 0.90 0.72 0.68 0.75 0.89 1.02 1.04 1.04 1.04 1.06 1.04 0.95 0.91 0.85 0.81 0.74 0.75 0.78 0.72 0.71 0.72 0.68 0.62 0.60 0.59 0.55 0.53 0.49 0.49 0.45 0.37 0.39 0.50 0.57 0.93 0.93 0.87 0.77 0.79 0.93 1.02 1.07
1.21 1.02 0.81 0.70 0.71 0.75 0.79 0.91 1.01 1.05 1.05 1.04 0.93 0.85 0.80 0.75 0.67 0.68 0.64 0.61 0.67 0.77 0.84 0.76 0.67 0.63 0.58 0.53 0.49 0.52 0.48 0.35 0.39 0.48 0.59 0.71 0.79 0.84 0.78 0.68 0.69 0.76 0.88
1.03 0.94 0.95 0.91 0.87 0.86 0.79 0.83 1.01 1.10 1.11 1.02 0.95 0.89 0.81 0.62 0.53 0.58 0.55 0.65 0.74 0.88 0.94 0.91 0.83 0.71 0.62 0.53 0.50 0.52 0.42 0.32 0.43 0.48 0.57 0.58 0.74 0.84 0.79 0.64 0.57 0.54 0.66
0.74 0.74 0.79 0.85 0.93 0.95 0.85 1.04 1.27 1.16 1.03 0.83 0.87 0.79 0.76 0.71 0.68 0.56 0.58 0.74 0.87 0.92 0.90 0.93 0.94 0.80 0.64 0.47 0.49 0.46 0.31 0.28 0.35 0.37 0.40 0.54 0.71 0.80 0.78 0.70 0.56 0.47 0.55
0.65 0.63 0.63 0.69 0.78 0.87 0.99 1.20 1.51 1.55 1.33 1.15 0.97 0.90 0.86 0.76 0.68 0.62 0.61 0.67 0.73 0.76 0.67 0.72 0.76 0.63 0.53 0.51 0.53 0.41 0.31 0.30 0.30 0.34 0.44 0.60 0.77 0.83 0.76 0.70 0.63 0.56 0.54
0.53 0.57 0.49 0.46 0.58 0.68 0.79 0.91 1.20 1.27 1.21 1.08 0.91 0.84 0.90 0.85 0.75 0.71 0.68 0.72 0.73 0.71 0.77 0.79 0.83 0.75 0.60 0.53 0.53 0.53 0.44 0.36 0.38 0.48 0.58 0.60 0.79 0.88 0.83 0.75 0.69 0.64 0.61
0.57 0.60 0.54 0.45 0.46 0.50 0.55 0.62 0.76 0.92 1.03 1.03 0.99 0.83 0.82 0.81 0.76 0.78 0.73 0.77 0.69 0.67 0.74 0.81 0.81 0.82 0.74 0.61 0.56 0.56 0.62 0.54 0.49 0.52 0.63 0.71 0.89 1.03 1.08 0.96 0.80 0.73 0.73
0.51 0.63 0.62 0.52 0.48 0.50 0.47 0.47 0.48 0.61 0.76 0.92 0.94 0.83 0.85 0.86 0.81 0.86 0.83 0.82 0.79 0.73 0.75 0.90 0.84 0.88 0.86 0.79 0.62 0.59 0.61 0.57 0.52 0.52 0.61 0.84 0.90 0.90 1.09 1.22 1.08 0.93 0.83
0.45 0.50 0.57 0.54 0.56 0.60 0.59 0.59 0.49 0.52 0.59 0.73 0.85 0.84 0.90 0.85 0.77 0.82 0.85 0.82 0.81 0.82 0.82 0.87 0.88 0.93 0.84 0.78 0.69 0.63 0.60 0.53 0.47 0.51 0.53 0.61 0.60 0.63 0.80 1.04 1.18 1.08 0.99
0.47 0.50 0.54 0.56 0.62 0.68 0.74 0.75 0.69 0.74 0.76 0.77 0.92 0.89 0.84 0.87 0.84 0.84 0.90 0.91 0.95 0.98 0.95 0.96 0.99 1.00 0.94 0.91 0.87 0.78 0.62 0.61 0.53 0.56 0.55 0.54 0.58 0.52 0.60 0.67 0.84 0.96 1.05
0.43 0.44 0.48 0.56 0.61 0.64 0.72 0.85 0.98 1.02 1.02 0.98 1.01 0.97 0.87 0.85 0.91 1.03 1.06 1.11 1.09 1.10 1.12 1.08 1.09 1.02 1.00 0.99 0.89 0.84 0.73 0.70 0.65 0.56 0.64 0.63 0.63 0.56 0.57 0.49 0.52 0.57 0.70
0.33 0.36 0.41 0.49 0.65 0.79 0.87 0.92 1.07 1.13 1.21 1.30 1.35 1.22 1.09 1.10 1.22 1.36 1.45 1.40 1.38 1.37 1.35 1.30 1.38 1.27 1.08 1.05 0.98 0.87 0.73 0.68 0.72 0.68 0.70 0.70 0.72 0.67 0.61 0.50 0.44 0.36 0.40
0.22 0.27 0.33 0.39 0.55 0.69 0.79 0.91 1.10 1.28 1.46 1.62 1.74 1.63 1.49 1.44 1.61 1.72 1.65 1.73 1.76 1.62 1.61 1.65 1.71 1.65 1.39 1.24 1.29 1.14 0.87 0.65 0.71 0.71 0.70 0.73 0.77 0.85 0.86 0.73 0.57 0.48 0.38
0.13 0.17 0.23 0.30 0.42 0.55 0.70 0.93 1.15 1.45 1.54 1.63 1.77 1.82 1.76 1.69 1.84 1.88 1.95 2.02 2.05 2.03 1.99 1.87 1.95 2.02 1.77 1.53 1.60 1.84 1.43 1.03 0.72 0.60 0.68 0.70 0.78 0.95 0.99 0.85 0.67 0.59 0.51
0.10 0.11 0.17 0.29 0.44 0.66 0.88 1.19 1.49 1.73 1.81 1.86 1.81 1.88 1.97 2.02 2.08 2.10 2.16 2.21 2.20 2.05 2.04 2.13 2.23 2.53 2.32 1.97 1.79 2.00 1.76 1.44 1.17 0.76 0.68 0.73 0.81 0.93 0.99 1.02 0.93 0.85 0.76
0.11 0.15 0.25 0.41 0.62 0.89 1.23 1.57 1.81 2.04 2.14 1.99 1.97 2.01 2.03 1.98 2.01 2.12 2.13 2.13 2.09 2.02 2.08 2.14 2.18 2.54 2.70 2.38 2.08 1.75 1.52 1.47 1.49 1.18 0.85 0.79 0.85 0.83 0.87 0.92 0.94 1.03 1.01
0.25 0.32 0.48 0.71 1.01 1.28 1.51 1.69 1.91 2.04 2.06 2.04 2.00 2.00 1.93 1.91 1.87 1.91 1.93 2.01 2.04 2.07 2.12 2.27 2.37 2.60 2.62 2.59 2.41 2.23 2.00 1.69 1.34 1.34 1.28 1.04 0.97 0.85 0.87 0.95 1.03 1.13 1.14
0.40 0.54 0.72 0.90 1.18 1.35 1.47 1.59 1.79 1.93 1.97 2.00 1.98 1.99 1.98 1.95 1.85 1.79 1.76 1.82 1.94 2.11 2.16 2.24 2.36 2.60 2.70 2.76 2.68 2.42 2.29 2.10 1.79 1.65 1.41 1.28 1.24 1.04 0.97 0.97 1.00 1.08 1.21

GEFSSE_prec_meanprecacc_138.txt.gz
Total_Precipitation_Accumulation
0.93 0.63 0.88 0.91 0.81 0.73 0.78 0.83 0.80 0.72 0.72 0.67 0.54 0.47 0.48 0.47 0.42 0.35 0.28 0.22 0.21 0.22 0.25 0.28 0.31 0.37 0.34 0.30 0.32 0.41 0.43 0.38 0.35 0.34 0.42 0.49 0.51 0.57 0.65 0.77 1.01 1.23 0.85
0.77 0.56 0.89 0.98 0.89 0.80 0.75 0.78 0.85 0.77 0.81 0.75 0.64 0.55 0.53 0.48 0.42 0.33 0.26 0.21 0.21 0.22 0.24 0.27 0.33 0.35 0.35 0.37 0.41 0.46 0.42 0.33 0.28 0.34 0.54 0.69 0.61 0.56 0.56 0.65 0.99 1.14 0.81
0.62 0.52 0.69 1.00 1.01 0.89 0.83 0.82 0.89 0.86 0.93 0.87 0.80 0.69 0.61 0.53 0.45 0.37 0.30 0.29 0.28 0.25 0.25 0.27 0.38 0.39 0.37 0.44 0.46 0.46 0.42 0.31 0.28 0.40 0.78 1.38 1.00 0.59 0.52 0.63 0.85 0.74 0.73
0.63 0.59 0.66 0.89 0.94 0.89 0.86 0.90 0.99 0.98 1.06 1.01 0.84 0.68 0.55 0.55 0.56 0.47 0.42 0.49 0.35 0.26 0.25 0.30 0.39 0.42 0.40 0.43 0.46 0.43 0.42 0.40 0.44 0.54 0.97 1.38 1.38 0.86 0.73 0.83 0.85 0.74 0.81
0.68 0.64 0.85 1.05 1.02 0.97 0.91 1.04 1.13 1.13 1.16 1.02 0.76 0.58 0.54 0.58 0.64 0.66 0.64 0.62 0.41 0.32 0.28 0.32 0.39 0.44 0.40 0.39 0.40 0.37 0.37 0.46 0.62 0.77 1.08 1.31 1.52 1.08 0.85 0.88 0.87 0.78 0.88
0.68 0.66 0.86 1.08 1.07 1.04 1.01 1.11 1.20 1.26 1.24 1.12 0.83 0.65 0.63 0.71 0.72 0.71 0.77 0.62 0.52 0.44 0.37 0.39 0.44 0.46 0.40 0.39 0.41 0.39 0.43 0.51 0.60 0.87 1.15 1.39 1.43 1.03 0.80 0.84 0.86 0.98 0.97
0.67 0.61 0.66 0.89 0.96 0.98 1.03 1.20 1.28 1.32 1.33 1.24 1.01 0.84 0.75 0.72 0.73 0.75 0.81 0.68 0.61 0.53 0.51 0.53 0.52 0.50 0.47 0.45 0.42 0.40 0.42 0.44 0.51 0.74 0.99 1.41 1.26 0.90 0.75 0.79 0.84 0.93 0.96
0.84 0.71 0.63 0.73 0.82 0.88 0.96 1.10 1.18 1.22 1.22 1.18 1.02 0.88 0.81 0.77 0.74 0.82 0.87 0.77 0.69 0.61 0.56 0.57 0.57 0.56 0.54 0.51 0.46 0.45 0.44 0.38 0.38 0.55 0.80 1.16 1.14 0.97 0.80 0.82 0.95 0.93 0.95
1.00 0.91 0.73 0.68 0.75 0.89 1.02 1.05 1.05 1.05 1.07 1.05 0.96 0.92 0.85 0.81 0.74 0.76 0.79 0.73 0.72 0.73 0.68 0.62 0.60 0.60 0.56 0.54 0.51 0.51 0.48 0.40 0.43 0.53 0.60 1.00 1.03 0.96 0.84 0.84 0.96 1.05 1.09
1.22 1.03 0.82 0.70 0.72 0.75 0.79 0.92 1.02 1.06 1.05 1.04 0.94 0.85 0.80 0.75 0.67 0.68 0.65 0.62 0.67 0.78 0.85 0.76 0.67 0.64 0.59 0.54 0.51 0.54 0.51 0.38 0.42 0.51 0.63 0.77 0.88 0.94 0.87 0.73 0.73 0.80 0.91
1.04 0.95 0.96 0.92 0.89 0.87 0.79 0.83 1.01 1.10 1.12 1.02 0.95 0.89 0.81 0.62 0.53 0.59 0.55 0.66 0.75 0.89 0.95 0.92 0.84 0.71 0.62 0.54 0.51 0.54 0.44 0.34 0.45 0.51 0.62 0.65 0.84 0.95 0.87 0.69 0.61 0.58 0.70
0.76 0.76 0.81 0.87 0.94 0.96 0.85 1.04 1.27 1.16 1.03 0.83 0.87 0.79 0.76 0.71 0.68 0.56 0.58 0.74 0.88 0.93 0.91 0.95 0.96 0.82 0.65 0.47 0.49 0.48 0.32 0.31 0.38 0.40 0.46 0.62 0.80 0.90 0.86 0.76 0.60 0.51 0.59
0.66 0.65 0.65 0.70 0.78 0.87 0.99 1.20 1.51 1.55 1.33 1.15 0.97 0.90 0.86 0.76 0.68 0.62 0.61 0.67 0.74 0.77 0.67 0.73 0.77 0.64 0.54 0.51 0.54 0.42 0.32 0.33 0.33 0.38 0.49 0.69 0.86 0.92 0.85 0.77 0.68 0.60 0.58
0.54 0.57 0.49 0.46 0.58 0.68 0.79 0.91 1.20 1.27 1.21 1.08 0.91 0.84 0.90 0.85 0.75 0.71 0.68 0.72 0.73 0.71 0.77 0.79 0.83 0.75 0.60 0.53 0.53 0.54 0.46 0.39 0.41 0.51 0.62 0.67 0.87 0.98 0.91 0.82 0.76 0.69 0.65
0.57 0.60 0.54 0.45 0.46 0.50 0.55 0.62 0.76 0.92 1.03 1.03 0.99 0.83 0.82 0.81 0.76 0.78 0.73 0.77 0.69 0.67 0.75 0.81 0.81 0.83 0.74 0.62 0.57 0.57 0.63 0.55 0.50 0.54 0.68 0.77 0.97 1.12 1.15 1.03 0.88 0.79 0.78
0.51 0.63 0.62 0.52 0.48 0.50 0.47 0.47 0.48 0.61 0.76 0.92 0.94 0.83 0.85 0.86 0.81 0.86 0.83 0.83 0.79 0.73 0.75 0.90 0.84 0.88 0.87 0.79 0.63 0.59 0.62 0.58 0.53 0.54 0.64 0.88 0.95 0.96 1.15 1.30 1.18 1.01 0.88
0.45 0.50 0.57 0.54 0.56 0.60 0.59 0.59 0.49 0.52 0.59 0.73 0.85 0.84 0.90 0.85 0.77 0.82 0.85 0.82 0.81 0.82 0.82 0.87 0.88 0.93 0.84 0.78 0.70 0.64 0.60 0.54 0.48 0.53 0.57 0.65 0.64 0.67 0.86 1.12 1.27 1.17 1.06
0.47 0.50 0.54 0.56 0.63 0.68 0.74 0.75 0.69 0.74 0.76 0.77 0.92 0.89 0.84 0.87 0.84 0.84 0.90 0.91 0.95 0.99 0.96 0.96 0.99 1.00 0.94 0.91 0.87 0.79 0.63 0.62 0.55 0.57 0.57 0.57 0.61 0.55 0.65 0.74 0.91 1.04 1.14
0.43 0.44 0.48 0.56 0.61 0.64 0.72 0.85 0.98 1.02 1.02 0.98 1.01 0.97 0.87 0.85 0.91 1.03 1.06 1.11 1.09 1.10 1.12 1.08 1.10 1.03 1.01 0.99 0.89 0.84 0.73 0.70 0.65 0.57 0.66 0.66 0.67 0.60 0.62 0.55 0.57 0.62 0.78
0.33 0.36 0.41 0.49 0.65 0.79 0.87 0.92 1.07 1.13 1.21 1.30 1.35 1.22 1.09 1.10 1.22 1.36 1.45 1.40 1.38 1.37 1.35 1.30 1.38 1.27 1.08 1.05 0.98 0.88 0.74 0.69 0.74 0.69 0.71 0.73 0.76 0.73 0.68 0.56 0.48 0.40 0.45
0.22 0.28 0.33 0.39 0.55 0.69 0.79 0.91 1.10 1.28 1.46 1.62 1.74 1.63 1.49 1.44 1.61 1.72 1.65 1.73 1.77 1.62 1.61 1.65 1.71 1.65 1.39 1.24 1.29 1.14 0.87 0.66 0.72 0.72 0.72 0.75 0.82 0.93 0.97 0.82 0.64 0.53 0.42
0.13 0.17 0.23 0.30 0.42 0.55 0.70 0.93 1.15 1.45 1.54 1.63 1.77 1.82 1.76 1.69 1.84 1.88 1.95 2.02 2.05 2.03 1.99 1.88 1.95 2.03 1.77 1.53 1.61 1.86 1.44 1.04 0.73 0.61 0.70 0.72 0.83 1.06 1.14 0.99 0.79 0.66 0.55
0.10 0.11 0.18 0.29 0.44 0.66 0.88 1.19 1.49 1.73 1.81 1.86 1.81 1.88 1.97 2.02 2.08 2.10 2.16 2.21 2.20 2.05 2.04 2.13 2.23 2.53 2.32 1.98 1.80 2.02 1.78 1.44 1.17 0.77 0.70 0.77 0.86 1.03 1.14 1.18 1.06 0.96 0.83
0.11 0.16 0.25 0.41 0.62 0.89 1.23 1.58 1.81 2.04 2.14 1.99 1.97 2.01 2.03 1.98 2.01 2.12 2.13 2.13 2.09 2.02 2.08 2.15 2.18 2.54 2.70 2.39 2.09 1.75 1.53 1.48 1.50 1.19 0.87 0.82 0.91 0.91 1.00 1.08 1.06 1.14 1.09
0.25 0.32 0.48 0.71 1.01 1.28 1.51 1.69 1.91 2.04 2.06 2.04 2.00 2.00 1.93 1.91 1.87 1.91 1.93 2.01 2.04 2.07 2.12 2.27 2.37 2.60 2.62 2.60 2.42 2.23 2.01 1.70 1.35 1.35 1.29 1.06 1.01 0.91 0.96 1.09 1.16 1.25 1.24
0.41 0.54 0.72 0.91 1.18 1.35 1.47 1.60 1.79 1.93 1.97 2.00 1.98 1.99 1.98 1.95 1.85 1.79 1.76 1.82 1.94 2.11 2.16 2.24 2.36 2.60 2.70 2.77 2.68 2.43 2.31 2.12 1.80 1.65 1.41 1.29 1.26 1.08 1.04 1.06 1.10 1.18 1.32

GEFSSE_prec_meanprecacc_144.txt.gz
Total_Precipitation_Accumulation
0.98 0.72 1.07 1.07 0.94 0.84 0.87 0.91 0.86 0.76 0.76 0.72 0.57 0.51 0.52 0.49 0.44 0.37 0.30 0.24 0.24 0.24 0.27 0.30 0.32 0.38 0.35 0.30 0.33 0.42 0.44 0.39 0.35 0.35 0.43 0.50 0.53 0.60 0.68 0.78 1.03 1.24 0.89
0.82 0.67 1.09 1.15 1.03 0.90 0.82 0.84 0.91 0.83 0.86 0.78 0.67 0.58 0.56 0.52 0.44 0.35 0.27 0.22 0.23 0.24 0.26 0.28 0.34 0.35 0.35 0.37 0.41 0.47 0.43 0.34 0.29 0.34 0.55 0.70 0.63 0.59 0.58 0.66 1.01 1.17 0.85
0.67 0.61 0.86 1.16 1.13 0.98 0.88 0.87 0.94 0.91 0.97 0.89 0.82 0.71 0.63 0.55 0.48 0.39 0.31 0.30 0.30 0.27 0.27 0.29 0.40 0.41 0.38 0.45 0.47 0.47 0.44 0.32 0.29 0.42 0.79 1.38 1.00 0.60 0.53 0.64 0.87 0.78 0.77
0.67 0.63 0.73 1.00 1.01 0.95 0.91 0.94 1.02 1.00 1.08 1.02 0.85 0.70 0.57 0.56 0.57 0.48 0.43 0.50 0.37 0.28 0.27 0.33 0.42 0.45 0.42 0.44 0.47 0.44 0.44 0.42 0.45 0.55 0.97 1.38 1.39 0.87 0.74 0.85 0.88 0.79 0.85
0.70 0.66 0.90 1.11 1.07 1.02 0.96 1.08 1.16 1.16 1.19 1.04 0.77 0.60 0.55 0.59 0.64 0.67 0.66 0.63 0.42 0.33 0.30 0.34 0.42 0.47 0.43 0.41 0.42 0.38 0.39 0.48 0.65 0.78 1.08 1.32 1.53 1.10 0.89 0.92 0.91 0.83 0.93
0.70 0.69 0.89 1.12 1.10 1.06 1.04 1.14 1.22 1.29 1.28 1.16 0.85 0.67 0.64 0.72 0.73 0.72 0.77 0.63 0.53 0.46 0.39 0.41 0.45 0.48 0.42 0.40 0.42 0.40 0.46 0.54 0.62 0.88 1.16 1.39 1.44 1.05 0.85 0.89 0.91 1.02 1.02
0.69 0.63 0.69 0.94 0.99 1.01 1.05 1.22 1.30 1.35 1.36 1.27 1.03 0.86 0.76 0.73 0.74 0.76 0.81 0.68 0.62 0.54 0.52 0.54 0.53 0.51 0.48 0.47 0.44 0.43 0.46 0.48 0.53 0.76 0.99 1.41 1.27 0.93 0.79 0.84 0.89 0.97 1.01
0.85 0.73 0.65 0.77 0.87 0.93 1.00 1.13 1.21 1.24 1.24 1.21 1.04 0.90 0.83 0.79 0.76 0.83 0.89 0.78 0.70 0.62 0.56 0.58 0.58 0.57 0.55 0.52 0.48 0.47 0.47 0.42 0.41 0.58 0.82 1.18 1.18 1.00 0.83 0.86 1.00 0.98 0.99
1.04 0.94 0.76 0.71 0.79 0.93 1.06 1.08 1.07 1.07 1.09 1.07 0.98 0.93 0.87 0.83 0.75 0.77 0.81 0.75 0.73 0.74 0.69 0.63 0.61 0.60 0.56 0.55 0.53 0.52 0.50 0.43 0.45 0.56 0.62 1.02 1.08 1.01 0.88 0.88 1.02 1.11 1.13
1.24 1.05 0.84 0.72 0.73 0.76 0.81 0.94 1.03 1.07 1.07 1.06 0.95 0.87 0.82 0.77 0.68 0.70 0.66 0.63 0.69 0.79 0.85 0.77 0.68 0.65 0.61 0.56 0.53 0.57 0.54 0.40 0.43 0.52 0.64 0.79 0.95 1.01 0.92 0.79 0.80 0.86 0.96
1.05 0.95 0.96 0.93 0.89 0.87 0.80 0.84 1.03 1.12 1.13 1.03 0.96 0.90 0.82 0.63 0.54 0.60 0.56 0.68 0.77 0.90 0.95 0.93 0.85 0.73 0.64 0.56 0.53 0.57 0.46 0.35 0.46 0.52 0.65 0.68 0.89 1.02 0.94 0.76 0.69 0.64 0.75
0.77 0.77 0.82 0.87 0.94 0.96 0.86 1.04 1.28 1.16 1.03 0.84 0.87 0.79 0.76 0.71 0.68 0.56 0.59 0.75 0.89 0.94 0.92 0.95 0.97 0.84 0.66 0.48 0.50 0.49 0.34 0.32 0.38 0.41 0.48 0.64 0.84 0.96 0.95 0.84 0.68 0.57 0.64
0.67 0.66 0.65 0.70 0.78 0.87 0.99 1.20 1.51 1.55 1.33 1.15 0.97 0.90 0.86 0.76 0.68 0.63 0.61 0.67 0.74 0.77 0.68 0.73 0.77 0.64 0.54 0.52 0.54 0.42 0.33 0.33 0.33 0.38 0.51 0.71 0.90 0.98 0.92 0.86 0.78 0.69 0.65
0.54 0.58 0.49 0.46 0.58 0.68 0.79 0.91 1.20 1.27 1.21 1.08 0.91 0.84 0.90 0.85 0.75 0.71 0.68 0.72 0.73 0.71 0.77 0.79 0.83 0.75 0.60 0.53 0.54 0.54 0.47 0.39 0.41 0.52 0.63 0.69 0.91 1.03 0.98 0.91 0.87 0.80 0.74
0.57 0.60 0.54 0.46 0.47 0.51 0.55 0.62 0.76 0.92 1.03 1.03 0.99 0.83 0.82 0.81 0.76 0.78 0.73 0.77 0.69 0.67 0.75 0.81 0.81 0.83 0.74 0.62 0.57 0.57 0.64 0.56 0.50 0.55 0.69 0.78 0.99 1.16 1.22 1.11 0.98 0.91 0.89
0.51 0.63 0.62 0.52 0.48 0.50 0.47 0.47 0.48 0.61 0.76 0.92 0.94 0.83 0.85 0.86 0.81 0.86 0.83 0.83 0.79 0.73 0.75 0.90 0.84 0.88 0.87 0.79 0.63 0.59 0.62 0.58 0.53 0.55 0.65 0.89 0.97 0.99 1.20 1.37 1.28 1.13 1.00
0.45 0.50 0.57 0.54 0.56 0.60 0.59 0.59 0.49 0.52 0.59 0.73 0.85 0.84 0.90 0.85 0.77 0.82 0.85 0.82 0.81 0.82 0.82 0.87 0.88 0.93 0.84 0.78 0.70 0.64 0.61 0.54 0.49 0.53 0.57 0.66 0.64 0.68 0.89 1.17 1.36 1.29 1.18
0.47 0.50 0.54 0.56 0.63 0.68 0.74 0.75 0.69 0.74 0.76 0.77 0.92 0.89 0.84 0.87 0.84 0.84 0.90 0.91 0.95 0.99 0.96 0.96 0.99 1.00 0.95 0.91 0.87 0.79 0.63 0.62 0.55 0.57 0.57 0.57 0.61 0.55 0.66 0.78 0.98 1.12 1.24
0.43 0.44 0.48 0.56 0.61 0.64 0.72 0.85 0.98 1.02 1.02 0.98 1.01 0.97 0.87 0.85 0.91 1.03 1.06 1.11 1.09 1.10 1.12 1.08 1.10 1.03 1.01 0.99 0.89 0.84 0.73 0.71 0.66 0.57 0.66 0.67 0.67 0.61 0.62 0.56 0.61 0.67 0.86
0.34 0.36 0.41 0.49 0.65 0.79 0.87 0.92 1.07 1.13 1.21 1.30 1.35 1.22 1.09 1.10 1.22 1.36 1.45 1.40 1.38 1.37 1.35 1.30 1.38 1.27 1.08 1.05 0.98 0.88 0.74 0.69 0.74 0.69 0.72 0.73 0.76 0.74 0.69 0.57 0.49 0.42 0.50
0.22 0.28 0.33 0.39 0.55 0.69 0.79 0.91 1.10 1.28 1.46 1.62 1.74 1.63 1.49 1.44 1.61 1.72 1.65 1.73 1.77 1.62 1.61 1.65 1.71 1.65 1.39 1.24 1.29 1.14 0.87 0.66 0.72 0.72 0.72 0.75 0.82 0.94 0.98 0.83 0.65 0.54 0.45
0.14 0.17 0.23 0.30 0.42 0.55 0.70 0.93 1.15 1.45 1.54 1.63 1.77 1.82 1.76 1.69 1.84 1.88 1.95 2.02 2.05 2.03 1.99 1.88 1.95 2.03 1.77 1.53 1.61 1.86 1.44 1.04 0.73 0.61 0.70 0.73 0.83 1.07 1.15 1.00 0.80 0.66 0.56
0.10 0.11 0.18 0.29 0.44 0.66 0.88 1.19 1.49 1.73 1.81 1.86 1.81 1.88 1.97 2.02 2.08 2.10 2.16 2.21 2.20 2.05 2.04 2.13 2.23 2.53 2.32 1.98 1.80 2.02 1.78 1.45 1.17 0.77 0.71 0.77 0.87 1.05 1.17 1.21 1.08 0.97 0.84
0.12 0.16 0.26 0.42 0.62 0.90 1.23 1.58 1.81 2.04 2.14 1.99 1.97 2.01 2.03 1.98 2.01 2.12 2.13 2.13 2.09 2.02 2.08 2.15 2.18 2.54 2.70 2.39 2.09 1.75 1.53 1.48 1.50 1.19 0.87 0.83 0.91 0.93 1.05 1.13 1.09 1.15 1.11
0.25 0.32 0.48 0.72 1.01 1.29 1.52 1.69 1.91 2.04 2.06 2.04 2.00 2.00 1.93 1.91 1.87 1.91 1.93 2.01 2.04 2.07 2.12 2.27 2.37 2.60 2.62 2.60 2.42 2.24 2.01 1.70 1.35 1.35 1.29 1.07 1.01 0.93 1.02 1.16 1.21 1.28 1.26
0.42 0.55 0.73 0.91 1.19 1.36 1.47 1.60 1.79 1.93 1.97 2.00 1.98 1.99 1.98 1.95 1.85 1.79 1.76 1.82 1.94 2.11 2.16 2.24 2.37 2.60 2.70 2.77 2.68 2.43 2.31 2.12 1.80 1.66 1.41 1.29 1.26 1.09 1.07 1.10 1.15 1.25 1.36

GEFSSE_prec_meanprecacc_150.txt.gz
Total_Precipitation_Accumulation
1.03 0.80 1.24 1.29 1.11 0.97 1.00 1.02 0.94 0.84 0.87 0.80 0.63 0.58 0.59 0.57 0.48 0.40 0.33 0.27 0.27 0.27 0.30 0.33 0.34 0.39 0.36 0.31 0.34 0.43 0.45 0.40 0.36 0.35 0.45 0.52 0.55 0.62 0.70 0.80 1.06 1.29 0.93
0.86 0.75 1.27 1.38 1.22 1.04 0.95 0.97 1.02 0.93 0.98 0.87 0.76 0.67 0.63 0.57 0.48 0.38 0.29 0.24 0.25 0.26 0.28 0.30 0.35 0.37 0.36 0.38 0.42 0.47 0.44 0.35 0.29 0.35 0.56 0.71 0.65 0.61 0.61 0.68 1.05 1.22 0.89
0.71 0.68 0.99 1.37 1.29 1.12 1.01 0.97 1.05 1.03 1.05 0.97 0.91 0.80 0.68 0.58 0.50 0.41 0.33 0.32 0.32 0.29 0.29 0.30 0.42 0.42 0.39 0.46 0.47 0.48 0.45 0.33 0.30 0.42 0.79 1.39 1.02 0.63 0.57 0.68 0.91 0.81 0.80
0.70 0.67 0.80 1.16 1.14 1.05 0.99 1.02 1.11 1.09 1.16 1.10 0.92 0.75 0.60 0.58 0.59 0.50 0.45 0.52 0.38 0.30 0.29 0.34 0.44 0.47 0.44 0.46 0.49 0.46 0.47 0.45 0.48 0.56 0.97 1.40 1.42 0.89 0.77 0.91 0.93 0.81 0.87
0.74 0.70 0.96 1.23 1.18 1.10 1.03 1.14 1.24 1.22 1.25 1.09 0.81 0.64 0.59 0.61 0.66 0.68 0.67 0.64 0.42 0.34 0.31 0.35 0.44 0.48 0.45 0.44 0.44 0.40 0.41 0.50 0.67 0.79 1.08 1.33 1.58 1.13 0.91 0.97 0.96 0.87 0.97
0.74 0.72 0.94 1.21 1.17 1.14 1.10 1.19 1.26 1.32 1.31 1.19 0.89 0.70 0.67 0.74 0.74 0.73 0.79 0.65 0.54 0.46 0.40 0.41 0.46 0.49 0.44 0.42 0.44 0.42 0.47 0.56 0.64 0.89 1.17 1.41 1.48 1.09 0.87 0.93 0.97 1.07 1.07
0.73 0.67 0.74 1.00 1.05 1.05 1.10 1.27 1.33 1.38 1.39 1.30 1.05 0.88 0.77 0.75 0.75 0.77 0.83 0.70 0.63 0.55 0.53 0.55 0.54 0.52 0.49 0.47 0.45 0.44 0.47 0.49 0.55 0.78 1.02 1.45 1.31 0.95 0.82 0.89 0.93 1.01 1.05
0.90 0.76 0.69 0.83 0.92 0.98 1.05 1.17 1.24 1.27 1.27 1.23 1.06 0.92 0.85 0.81 0.77 0.84 0.90 0.80 0.72 0.63 0.57 0.59 0.59 0.58 0.56 0.53 0.49 0.48 0.48 0.42 0.41 0.60 0.85 1.22 1.21 1.03 0.87 0.92 1.04 1.02 1.04
1.09 0.97 0.80 0.75 0.82 0.98 1.11 1.13 1.11 1.09 1.11 1.09 0.99 0.94 0.87 0.83 0.76 0.78 0.82 0.76 0.75 0.75 0.70 0.64 0.62 0.62 0.58 0.56 0.54 0.54 0.51 0.43 0.46 0.57 0.63 1.04 1.10 1.05 0.92 0.94 1.08 1.15 1.16
1.28 1.09 0.87 0.74 0.74 0.78 0.84 0.98 1.08 1.11 1.10 1.09 0.98 0.88 0.83 0.77 0.69 0.71 0.67 0.64 0.70 0.80 0.87 0.79 0.69 0.66 0.62 0.57 0.55 0.57 0.55 0.41 0.44 0.53 0.66 0.80 0.97 1.04 0.96 0.85 0.86 0.91 0.99
1.07 0.98 0.99 0.94 0.90 0.89 0.82 0.87 1.06 1.15 1.16 1.05 0.98 0.92 0.83 0.64 0.55 0.61 0.58 0.69 0.78 0.92 0.97 0.94 0.86 0.74 0.66 0.57 0.55 0.57 0.46 0.35 0.47 0.54 0.67 0.69 0.93 1.05 0.98 0.81 0.75 0.71 0.80
0.78 0.79 0.84 0.88 0.95 0.96 0.86 1.05 1.29 1.17 1.04 0.84 0.87 0.79 0.76 0.71 0.69 0.57 0.60 0.77 0.91 0.94 0.93 0.96 0.98 0.85 0.66 0.48 0.51 0.50 0.34 0.32 0.38 0.42 0.50 0.67 0.89 1.00 0.98 0.89 0.76 0.67 0.71
0.68 0.67 0.65 0.70 0.79 0.87 1.00 1.21 1.52 1.56 1.33 1.15 0.97 0.90 0.86 0.76 0.68 0.63 0.62 0.68 0.75 0.78 0.68 0.73 0.77 0.64 0.54 0.52 0.54 0.43 0.33 0.33 0.34 0.39 0.52 0.73 0.94 1.03 0.97 0.91 0.86 0.77 0.73
0.54 0.58 0.50 0.46 0.60 0.69 0.80 0.92 1.21 1.28 1.21 1.08 0.91 0.84 0.90 0.85 0.75 0.71 0.68 0.73 0.73 0.72 0.77 0.79 0.83 0.75 0.60 0.53 0.54 0.55 0.47 0.39 0.41 0.52 0.64 0.70 0.93 1.07 1.03 0.98 0.93 0.86 0.80
0.57 0.60 0.55 0.47 0.48 0.51 0.56 0.63 0.76 0.92 1.03 1.03 0.99 0.83 0.82 0.81 0.76 0.78 0.73 0.77 0.70 0.68 0.75 0.81 0.81 0.83 0.74 0.62 0.57 0.57 0.64 0.56 0.51 0.55 0.69 0.79 1.00 1.19 1.25 1.17 1.04 0.97 0.95
0.51 0.63 0.63 0.53 0.49 0.50 0.47 0.47 0.48 0.61 0.76 0.92 0.94 0.83 0.85 0.86 0.81 0.86 0.83 0.83 0.79 0.73 0.75 0.91 0.84 0.88 0.87 0.80 0.63 0.60 0.62 0.58 0.54 0.56 0.66 0.89 0.97 1.01 1.23 1.40 1.33 1.19 1.06
0.45 0.50 0.57 0.55 0.57 0.60 0.59 0.59 0.49 0.52 0.59 0.73 0.85 0.84 0.90 0.85 0.77 0.82 0.85 0.82 0.81 0.82 0.82 0.87 0.89 0.94 0.84 0.78 0.70 0.64 0.61 0.55 0.49 0.54 0.58 0.66 0.65 0.69 0.90 1.19 1.39 1.34 1.24
0.47 0.50 0.55 0.56 0.63 0.68 0.74 0.75 0.69 0.74 0.76 0.77 0.92 0.89 0.84 0.87 0.84 0.84 0.90 0.91 0.95 0.99 0.96 0.96 0.99 1.00 0.95 0.92 0.87 0.79 0.64 0.62 0.55 0.57 0.57 0.57 0.61 0.56 0.66 0.79 1.00 1.15 1.29
0.43 0.44 0.48 0.56 0.61 0.64 0.72 0.85 0.98 1.02 1.02 0.98 1.01 0.97 0.87 0.85 0.91 1.03 1.06 1.11 1.09 1.10 1.12 1.08 1.10 1.03 1.01 0.99 0.89 0.85 0.74 0.71 0.67 0.58 0.66 0.67 0.68 0.61 0.63 0.58 0.62 0.69 0.89
0.34 0.36 0.41 0.49 0.65 0.79 0.87 0.92 1.08 1.13 1.21 1.30 1.35 1.22 1.09 1.10 1.22 1.36 1.45 1.40 1.38 1.37 1.35 1.30 1.38 1.27 1.08 1.05 0.98 0.89 0.75 0.70 0.75 0.70 0.72 0.74 0.77 0.75 0.69 0.58 0.50 0.44 0.53
0.22 0.28 0.33 0.39 0.55 0.69 0.79 0.91 1.10 1.28 1.46 1.62 1.74 1.63 1.49 1.45 1.61 1.72 1.65 1.73 1.77 1.62 1.61 1.66 1.71 1.65 1.39 1.25 1.30 1.16 0.89 0.67 0.73 0.73 0.72 0.76 0.83 0.95 0.98 0.84 0.66 0.56 0.48
0.14 0.17 0.23 0.30 0.42 0.55 0.70 0.93 1.16 1.45 1.54 1.63 1.77 1.82 1.76 1.69 1.84 1.88 1.95 2.02 2.05 2.03 1.99 1.88 1.95 2.03 1.77 1.54 1.62 1.86 1.45 1.05 0.74 0.62 0.71 0.74 0.84 1.08 1.16 1.01 0.80 0.68 0.59
0.10 0.11 0.18 0.29 0.44 0.66 0.88 1.19 1.49 1.73 1.81 1.86 1.81 1.88 1.97 2.02 2.08 2.10 2.16 2.22 2.21 2.06 2.04 2.13 2.23 2.53 2.32 1.98 1.80 2.02 1.78 1.45 1.18 0.78 0.72 0.78 0.87 1.05 1.18 1.22 1.09 0.98 0.85
0.12 0.16 0.26 0.42 0.62 0.90 1.23 1.58 1.81 2.04 2.14 1.99 1.97 2.01 2.03 1.98 2.01 2.12 2.13 2.13 2.09 2.02 2.08 2.15 2.18 2.54 2.71 2.40 2.09 1.76 1.53 1.49 1.51 1.21 0.89 0.83 0.92 0.94 1.05 1.14 1.10 1.16 1.12
0.25 0.32 0.48 0.72 1.01 1.29 1.52 1.69 1.91 2.04 2.06 2.04 2.00 2.00 1.93 1.91 1.87 1.91 1.93 2.01 2.04 2.07 2.12 2.27 2.37 2.61 2.62 2.61 2.43 2.24 2.02 1.72 1.37 1.38 1.31 1.07 1.02 0.93 1.03 1.17 1.23 1.30 1.27
0.42 0.55 0.73 0.91 1.19 1.36 1.47 1.60 1.79 1.93 1.97 2.00 1.98 1.99 1.98 1.95 1.85 1.79 1.76 1.82 1.94 2.11 2.17 2.24 2.37 2.60 2.70 2.77 2.68 2.43 2.32 2.14 1.83 1.68 1.43 1.30 1.27 1.10 1.08 1.11 1.16 1.27 1.37

GEFSSE_prec_meanprecacc_156.txt.gz
Total_Precipitation_Accumulation
1.18 0.88 1.30 1.39 1.20 1.04 1.06 1.09 1.03 0.92 0.95 0.88 0.69 0.63 0.65 0.63 0.53 0.43 0.35 0.29 0.28 0.28 0.31 0.36 0.37 0.40 0.36 0.32 0.34 0.43 0.46 0.40 0.36 0.37 0.48 0.55 0.57 0.64 0.71 0.82 1.10 1.37 0.99
1.00 0.84 1.33 1.50 1.32 1.13 1.04 1.06 1.11 1.01 1.06 0.96 0.82 0.71 0.69 0.62 0.52 0.41 0.32 0.25 0.25 0.27 0.29 0.32 0.37 0.38 0.36 0.39 0.42 0.48 0.44 0.35 0.30 0.36 0.58 0.76 0.70 0.64 0.63 0.70 1.09 1.27 0.94
0.82 0.76 1.04 1.46 1.40 1.22 1.11 1.08 1.14 1.10 1.14 1.06 0.99 0.86 0.74 0.64 0.55 0.44 0.35 0.33 0.33 0.30 0.30 0.32 0.43 0.44 0.40 0.46 0.48 0.48 0.46 0.34 0.31 0.44 0.85 1.51 1.13 0.67 0.60 0.71 0.95 0.83 0.82
0.76 0.72 0.83 1.22 1.22 1.12 1.04 1.08 1.16 1.13 1.21 1.15 0.97 0.80 0.65 0.62 0.62 0.52 0.47 0.53 0.39 0.31 0.31 0.35 0.46 0.48 0.45 0.47 0.50 0.47 0.47 0.45 0.49 0.60 1.07 1.52 1.53 0.93 0.81 0.97 0.96 0.84 0.89
0.78 0.74 1.00 1.30 1.26 1.18 1.08 1.18 1.28 1.25 1.27 1.11 0.84 0.67 0.61 0.63 0.68 0.69 0.69 0.66 0.44 0.35 0.32 0.35 0.44 0.49 0.46 0.45 0.44 0.41 0.42 0.51 0.68 0.84 1.15 1.44 1.70 1.18 0.93 1.01 0.99 0.90 1.00
0.78 0.76 0.97 1.28 1.24 1.20 1.15 1.23 1.30 1.34 1.32 1.21 0.91 0.72 0.68 0.75 0.75 0.73 0.79 0.66 0.55 0.47 0.40 0.41 0.46 0.50 0.44 0.43 0.44 0.42 0.48 0.57 0.67 0.96 1.24 1.51 1.60 1.15 0.90 0.95 0.99 1.09 1.10
0.76 0.70 0.75 1.04 1.10 1.10 1.15 1.31 1.36 1.39 1.40 1.31 1.07 0.89 0.78 0.76 0.77 0.78 0.83 0.70 0.65 0.56 0.53 0.55 0.55 0.53 0.49 0.48 0.45 0.44 0.47 0.51 0.58 0.83 1.07 1.52 1.38 0.99 0.85 0.91 0.95 1.03 1.09
0.93 0.80 0.70 0.86 0.98 1.03 1.09 1.20 1.28 1.31 1.28 1.24 1.07 0.92 0.85 0.81 0.77 0.85 0.91 0.80 0.73 0.64 0.58 0.59 0.60 0.59 0.56 0.53 0.49 0.49 0.49 0.43 0.44 0.65 0.89 1.26 1.24 1.06 0.89 0.94 1.07 1.04 1.07
1.11 1.01 0.84 0.79 0.85 1.01 1.14 1.17 1.15 1.12 1.13 1.10 1.00 0.94 0.87 0.83 0.76 0.78 0.82 0.77 0.75 0.76 0.71 0.65 0.62 0.62 0.58 0.56 0.54 0.54 0.52 0.44 0.48 0.61 0.68 1.08 1.12 1.06 0.93 0.97 1.12 1.19 1.19
1.30 1.12 0.91 0.78 0.78 0.80 0.86 1.02 1.13 1.14 1.13 1.11 0.98 0.89 0.83 0.78 0.69 0.71 0.67 0.64 0.70 0.81 0.87 0.79 0.70 0.66 0.62 0.57 0.55 0.57 0.55 0.42 0.46 0.57 0.72 0.84 0.99 1.06 0.98 0.88 0.88 0.93 1.01
1.10 1.00 1.01 0.96 0.90 0.90 0.84 0.90 1.09 1.18 1.19 1.07 0.98 0.92 0.83 0.64 0.56 0.61 0.58 0.69 0.78 0.92 0.97 0.94 0.86 0.75 0.66 0.57 0.55 0.57 0.47 0.36 0.49 0.57 0.72 0.73 0.95 1.07 1.00 0.86 0.79 0.73 0.81
0.80 0.80 0.84 0.89 0.95 0.97 0.87 1.06 1.30 1.18 1.04 0.84 0.87 0.79 0.76 0.72 0.69 0.57 0.60 0.77 0.91 0.95 0.93 0.96 0.98 0.85 0.67 0.49 0.51 0.50 0.34 0.32 0.40 0.44 0.52 0.70 0.93 1.03 1.01 0.91 0.79 0.69 0.73
0.69 0.68 0.66 0.71 0.79 0.87 1.00 1.21 1.52 1.56 1.33 1.15 0.97 0.90 0.86 0.76 0.68 0.63 0.62 0.68 0.75 0.78 0.69 0.74 0.78 0.64 0.54 0.52 0.55 0.43 0.34 0.35 0.35 0.40 0.53 0.74 0.95 1.05 0.99 0.94 0.90 0.80 0.74
0.54 0.59 0.50 0.46 0.60 0.70 0.80 0.92 1.22 1.28 1.21 1.08 0.91 0.84 0.90 0.85 0.75 0.71 0.69 0.73 0.73 0.72 0.78 0.79 0.83 0.75 0.60 0.53 0.54 0.55 0.47 0.40 0.42 0.53 0.64 0.70 0.94 1.09 1.06 1.01 0.97 0.88 0.82
0.57 0.60 0.55 0.47 0.48 0.52 0.56 0.63 0.76 0.92 1.03 1.03 0.99 0.83 0.82 0.81 0.76 0.78 0.73 0.78 0.70 0.68 0.75 0.82 0.81 0.83 0.74 0.62 0.57 0.57 0.64 0.56 0.51 0.56 0.70 0.79 1.01 1.20 1.28 1.19 1.05 0.97 0.96
0.52 0.64 0.63 0.53 0.49 0.50 0.48 0.47 0.48 0.61 0.76 0.92 0.94 0.83 0.85 0.86 0.81 0.86 0.83 0.83 0.79 0.73 0.76 0.91 0.85 0.89 0.87 0.80 0.63 0.60 0.63 0.59 0.54 0.57 0.67 0.90 0.98 1.01 1.25 1.42 1.34 1.20 1.08
0.45 0.50 0.57 0.55 0.57 0.60 0.59 0.59 0.49 0.52 0.59 0.73 0.85 0.84 0.90 0.85 0.77 0.82 0.85 0.82 0.81 0.82 0.82 0.87 0.89 0.94 0.84 0.78 0.70 0.65 0.61 0.56 0.50 0.57 0.59 0.67 0.65 0.70 0.91 1.21 1.41 1.35 1.25
0.47 0.50 0.55 0.56 0.63 0.69 0.74 0.75 0.69 0.74 0.76 0.77 0.92 0.89 0.84 0.87 0.84 0.84 0.90 0.91 0.95 0.99 0.96 0.96 0.99 1.01 0.95 0.92 0.87 0.81 0.64 0.63 0.57 0.60 0.59 0.58 0.62 0.57 0.67 0.80 1.02 1.17 1.31
0.43 0.44 0.48 0.56 0.61 0.64 0.72 0.85 0.98 1.02 1.02 0.98 1.01 0.97 0.87 0.85 0.91 1.03 1.07 1.12 1.09 1.10 1.12 1.09 1.10 1.03 1.02 1.00 0.91 0.87 0.76 0.72 0.69 0.60 0.68 0.68 0.68 0.63 0.64 0.58 0.63 0.70 0.91
0.34 0.36 0.41 0.49 0.65 0.79 0.87 0.92 1.08 1.13 1.21 1.30 1.35 1.22 1.09 1.10 1.22 1.37 1.46 1.40 1.39 1.37 1.35 1.31 1.39 1.28 1.10 1.07 1.00 0.92 0.79 0.71 0.77 0.72 0.74 0.75 0.79 0.76 0.71 0.60 0.54 0.47 0.55
0.22 0.28 0.34 0.40 0.55 0.69 0.79 0.91 1.10 1.28 1.46 1.62 1.74 1.63 1.49 1.45 1.61 1.72 1.65 1.73 1.77 1.63 1.62 1.66 1.73 1.67 1.41 1.26 1.32 1.19 0.91 0.69 0.75 0.75 0.73 0.78 0.85 0.97 1.00 0.86 0.70 0.61 0.53
0.14 0.17 0.23 0.31 0.42 0.55 0.70 0.93 1.16 1.45 1.54 1.63 1.78 1.82 1.76 1.69 1.84 1.88 1.95 2.02 2.05 2.04 2.00 1.88 1.96 2.04 1.79 1.56 1.64 1.90 1.48 1.08 0.75 0.63 0.72 0.75 0.85 1.10 1.17 1.02 0.81 0.70 0.62
0.10 0.11 0.18 0.29 0.44 0.66 0.88 1.19 1.49 1.73 1.81 1.86 1.81 1.88 1.97 2.02 2.08 2.10 2.16 2.22 2.22 2.06 2.05 2.14 2.24 2.55 2.34 2.00 1.82 2.04 1.82 1.49 1.20 0.79 0.73 0.80 0.89 1.07 1.19 1.22 1.10 0.99 0.88
0.12 0.16 0.26 0.42 0.62 0.90 1.23 1.58 1.81 2.04 2.14 1.99 1.97 2.01 2.03 1.98 2.01 2.12 2.14 2.13 2.10 2.03 2.09 2.15 2.19 2.55 2.72 2.41 2.10 1.77 1.55 1.51 1.54 1.23 0.90 0.86 0.94 0.97 1.07 1.15 1.12 1.19 1.15
0.25 0.32 0.48 0.72 1.01 1.29 1.52 1.69 1.91 2.04 2.06 2.04 2.00 2.00 1.93 1.91 1.87 1.91 1.93 2.01 2.04 2.08 2.14 2.29 2.39 2.61 2.63 2.62 2.44 2.26 2.04 1.74 1.39 1.41 1.34 1.09 1.04 0.96 1.05 1.19 1.24 1.32 1.31
0.42 0.55 0.73 0.91 1.19 1.36 1.47 1.60 1.79 1.93 1.97 2.00 1.98 1.99 1.98 1.95 1.85 1.79 1.76 1.82 1.94 2.11 2.17 2.25 2.38 2.60 2.70 2.77 2.70 2.44 2.34 2.16 1.86 1.73 1.47 1.33 1.30 1.12 1.10 1.13 1.18 1.29 1.40

GEFSSE_prec_meanprecacc_162.txt.gz
Total_Precipitation_Accumulation
1.28 1.00 1.47 1.49 1.26 1.09 1.09 1.12 1.04 0.92 0.96 0.91 0.70 0.65 0.66 0.64 0.55 0.44 0.35 0.29 0.29 0.29 0.32 0.36 0.38 0.41 0.37 0.33 0.35 0.44 0.46 0.42 0.38 0.39 0.50 0.58 0.60 0.67 0.75 0.86 1.13 1.40 1.05
1.06 0.92 1.46 1.57 1.38 1.18 1.06 1.08 1.13 1.02 1.07 0.98 0.83 0.72 0.71 0.64 0.54 0.42 0.33 0.26 0.26 0.28 0.30 0.33 0.38 0.39 0.37 0.39 0.43 0.49 0.45 0.37 0.31 0.37 0.61 0.80 0.74 0.68 0.67 0.75 1.13 1.31 0.99
0.86 0.81 1.11 1.53 1.46 1.26 1.13 1.10 1.16 1.12 1.15 1.07 1.00 0.87 0.76 0.66 0.57 0.46 0.35 0.34 0.33 0.30 0.30 0.32 0.43 0.44 0.41 0.47 0.48 0.49 0.47 0.36 0.32 0.46 0.88 1.53 1.16 0.71 0.64 0.75 0.98 0.86 0.85
0.78 0.73 0.85 1.28 1.26 1.14 1.06 1.10 1.17 1.14 1.22 1.16 0.99 0.81 0.67 0.64 0.64 0.53 0.47 0.54 0.39 0.31 0.31 0.36 0.46 0.49 0.46 0.48 0.50 0.48 0.49 0.47 0.51 0.63 1.08 1.54 1.55 0.98 0.86 0.99 0.99 0.86 0.91
0.80 0.76 1.04 1.35 1.30 1.20 1.10 1.19 1.28 1.26 1.28 1.13 0.86 0.68 0.63 0.65 0.68 0.70 0.69 0.67 0.44 0.36 0.32 0.36 0.45 0.50 0.48 0.46 0.45 0.42 0.43 0.53 0.72 0.86 1.15 1.45 1.72 1.23 0.97 1.04 1.02 0.91 1.02
0.82 0.79 1.01 1.34 1.29 1.24 1.18 1.25 1.30 1.34 1.33 1.22 0.93 0.73 0.70 0.76 0.76 0.74 0.80 0.66 0.56 0.48 0.40 0.42 0.47 0.50 0.45 0.43 0.45 0.43 0.49 0.58 0.70 0.97 1.25 1.53 1.62 1.19 0.93 0.97 1.00 1.11 1.11
0.78 0.73 0.78 1.11 1.17 1.15 1.18 1.33 1.37 1.39 1.40 1.32 1.07 0.89 0.79 0.76 0.77 0.78 0.84 0.71 0.65 0.57 0.54 0.56 0.55 0.53 0.50 0.49 0.46 0.45 0.49 0.52 0.60 0.85 1.09 1.53 1.39 1.03 0.87 0.93 0.97 1.05 1.10
0.93 0.81 0.73 0.92 1.03 1.07 1.13 1.24 1.30 1.32 1.28 1.24 1.07 0.92 0.85 0.81 0.78 0.86 0.91 0.81 0.73 0.64 0.58 0.60 0.61 0.60 0.57 0.54 0.50 0.49 0.50 0.46 0.46 0.67 0.92 1.27 1.26 1.09 0.92 0.96 1.10 1.06 1.09
1.12 1.02 0.85 0.82 0.90 1.07 1.19 1.21 1.17 1.13 1.13 1.11 1.00 0.94 0.87 0.84 0.77 0.79 0.83 0.77 0.76 0.76 0.71 0.65 0.63 0.63 0.58 0.57 0.54 0.54 0.53 0.46 0.51 0.64 0.70 1.09 1.15 1.09 0.96 0.99 1.14 1.21 1.22
1.31 1.12 0.92 0.79 0.81 0.86 0.93 1.08 1.16 1.16 1.14 1.12 0.99 0.89 0.83 0.78 0.70 0.72 0.68 0.65 0.71 0.81 0.87 0.79 0.70 0.67 0.63 0.58 0.55 0.58 0.56 0.42 0.49 0.60 0.74 0.86 1.02 1.08 1.00 0.90 0.90 0.94 1.03
1.12 1.01 1.01 0.96 0.91 0.94 0.88 0.93 1.11 1.19 1.20 1.08 0.99 0.92 0.83 0.64 0.56 0.61 0.58 0.69 0.79 0.92 0.97 0.95 0.87 0.76 0.67 0.58 0.56 0.58 0.47 0.37 0.52 0.60 0.75 0.76 0.99 1.10 1.02 0.88 0.80 0.74 0.82
0.82 0.81 0.85 0.89 0.95 0.97 0.88 1.07 1.30 1.18 1.04 0.84 0.87 0.79 0.77 0.72 0.69 0.57 0.60 0.78 0.92 0.96 0.94 0.97 0.99 0.87 0.68 0.50 0.51 0.50 0.35 0.33 0.41 0.46 0.54 0.74 0.97 1.07 1.03 0.93 0.81 0.71 0.75
0.69 0.69 0.66 0.71 0.79 0.87 1.00 1.21 1.53 1.56 1.33 1.15 0.97 0.90 0.86 0.76 0.68 0.63 0.62 0.68 0.75 0.79 0.70 0.75 0.79 0.66 0.55 0.53 0.55 0.43 0.34 0.35 0.36 0.41 0.54 0.77 0.99 1.08 1.02 0.95 0.92 0.82 0.76
0.54 0.59 0.50 0.47 0.60 0.70 0.80 0.92 1.22 1.28 1.21 1.08 0.91 0.84 0.90 0.85 0.75 0.71 0.69 0.73 0.74 0.72 0.78 0.81 0.85 0.77 0.61 0.55 0.54 0.55 0.48 0.41 0.43 0.53 0.65 0.73 0.97 1.13 1.08 1.02 0.99 0.90 0.84
0.57 0.61 0.56 0.47 0.48 0.52 0.56 0.63 0.76 0.92 1.03 1.03 0.99 0.83 0.82 0.81 0.76 0.78 0.73 0.78 0.70 0.68 0.76 0.83 0.83 0.84 0.76 0.63 0.58 0.58 0.65 0.57 0.52 0.56 0.70 0.81 1.04 1.23 1.31 1.21 1.07 0.99 0.98
0.52 0.64 0.63 0.53 0.49 0.50 0.48 0.47 0.48 0.61 0.76 0.92 0.94 0.83 0.85 0.86 0.81 0.86 0.83 0.83 0.79 0.73 0.76 0.92 0.86 0.90 0.88 0.81 0.64 0.61 0.64 0.61 0.56 0.58 0.67 0.91 1.00 1.04 1.28 1.46 1.36 1.22 1.09
0.45 0.51 0.57 0.55 0.57 0.60 0.59 0.59 0.49 0.52 0.59 0.73 0.85 0.84 0.90 0.85 0.77 0.82 0.85 0.82 0.81 0.82 0.82 0.87 0.89 0.94 0.85 0.79 0.71 0.66 0.63 0.59 0.52 0.58 0.60 0.68 0.66 0.71 0.94 1.24 1.44 1.38 1.28
0.47 0.50 0.55 0.57 0.63 0.69 0.74 0.75 0.69 0.74 0.76 0.77 0.92 0.89 0.84 0.87 0.84 0.84 0.90 0.91 0.95 0.99 0.96 0.96 0.99 1.01 0.95 0.92 0.88 0.82 0.66 0.66 0.60 0.62 0.60 0.59 0.63 0.57 0.68 0.82 1.04 1.20 1.34
0.43 0.44 0.48 0.57 0.61 0.65 0.72 0.85 0.98 1.03 1.02 0.98 1.01 0.97 0.87 0.85 0.91 1.03 1.07 1.12 1.09 1.10 1.12 1.09 1.10 1.03 1.02 1.01 0.92 0.89 0.79 0.74 0.71 0.62 0.68 0.68 0.69 0.63 0.65 0.59 0.65 0.73 0.93
0.34 0.36 0.42 0.49 0.65 0.80 0.87 0.92 1.08 1.13 1.21 1.30 1.35 1.22 1.09 1.10 1.22 1.37 1.46 1.40 1.39 1.37 1.35 1.31 1.39 1.28 1.10 1.08 1.01 0.94 0.81 0.72 0.78 0.74 0.75 0.76 0.79 0.77 0.71 0.61 0.55 0.48 0.57
0.22 0.28 0.34 0.40 0.55 0.69 0.79 0.91 1.10 1.28 1.46 1.62 1.74 1.63 1.49 1.45 1.61 1.72 1.65 1.73 1.77 1.63 1.62 1.66 1.73 1.68 1.41 1.26 1.32 1.21 0.94 0.70 0.77 0.76 0.75 0.79 0.86 0.98 1.01 0.87 0.71 0.63 0.54
0.14 0.17 0.23 0.31 0.42 0.55 0.70 0.93 1.16 1.45 1.54 1.63 1.78 1.82 1.76 1.69 1.84 1.88 1.96 2.02 2.05 2.04 2.00 1.88 1.96 2.05 1.79 1.56 1.64 1.90 1.49 1.10 0.77 0.64 0.73 0.77 0.87 1.11 1.18 1.02 0.83 0.72 0.64
0.10 0.11 0.18 0.29 0.44 0.66 0.88 1.20 1.49 1.73 1.81 1.86 1.81 1.88 1.97 2.02 2.08 2.10 2.16 2.22 2.22 2.07 2.05 2.14 2.24 2.55 2.35 2.00 1.82 2.05 1.82 1.49 1.21 0.80 0.75 0.82 0.90 1.08 1.21 1.24 1.11 1.02 0.90
0.12 0.16 0.26 0.42 0.62 0.90 1.23 1.58 1.81 2.04 2.14 1.99 1.97 2.01 2.03 1.98 2.01 2.12 2.14 2.13 2.10 2.03 2.09 2.15 2.19 2.55 2.72 2.42 2.11 1.77 1.56 1.52 1.55 1.24 0.91 0.87 0.96 0.98 1.09 1.17 1.14 1.20 1.17
0.25 0.32 0.48 0.72 1.01 1.29 1.52 1.70 1.91 2.04 2.06 2.04 2.00 2.00 1.93 1.91 1.87 1.91 1.93 2.01 2.04 2.08 2.14 2.29 2.39 2.61 2.63 2.62 2.44 2.26 2.04 1.74 1.39 1.42 1.34 1.10 1.07 0.98 1.07 1.21 1.27 1.34 1.32
0.42 0.55 0.73 0.91 1.19 1.36 1.48 1.60 1.79 1.93 1.98 2.00 1.98 1.99 1.98 1.95 1.85 1.79 1.76 1.82 1.94 2.11 2.17 2.25 2.38 2.60 2.70 2.78 2.70 2.44 2.34 2.16 1.86 1.73 1.48 1.35 1.33 1.14 1.11 1.15 1.19 1.31 1.42

GEFSSE_prec_meanprecacc_168.txt.gz
Total_Precipitation_Accumulation
1.36 1.17 1.74 1.76 1.45 1.21 1.19 1.21 1.12 1.00 1.02 0.97 0.74 0.68 0.69 0.68 0.59 0.47 0.38 0.32 0.32 0.32 0.36 0.38 0.39 0.42 0.38 0.34 0.36 0.45 0.48 0.43 0.39 0.40 0.53 0.61 0.62 0.70 0.79 0.90 1.17 1.42 1.10
1.14 1.04 1.65 1.79 1.53 1.29 1.14 1.15 1.19 1.08 1.12 1.01 0.85 0.75 0.74 0.69 0.61 0.48 0.36 0.29 0.29 0.30 0.32 0.35 0.40 0.40 0.38 0.40 0.44 0.50 0.48 0.40 0.34 0.40 0.64 0.83 0.77 0.71 0.69 0.78 1.16 1.35 1.06
0.90 0.88 1.25 1.71 1.58 1.34 1.19 1.15 1.19 1.16 1.20 1.11 1.02 0.90 0.80 0.71 0.63 0.51 0.39 0.37 0.36 0.32 0.31 0.34 0.46 0.46 0.42 0.49 0.50 0.51 0.50 0.39 0.35 0.49 0.90 1.55 1.18 0.74 0.67 0.77 1.02 0.91 0.90
0.81 0.79 0.95 1.40 1.35 1.19 1.09 1.14 1.20 1.17 1.26 1.21 1.01 0.84 0.70 0.68 0.67 0.56 0.49 0.56 0.41 0.33 0.33 0.37 0.48 0.51 0.48 0.50 0.52 0.49 0.51 0.50 0.55 0.66 1.09 1.55 1.56 1.01 0.88 1.02 1.03 0.92 0.96
0.84 0.83 1.12 1.44 1.38 1.26 1.14 1.24 1.32 1.28 1.30 1.15 0.88 0.71 0.66 0.68 0.72 0.72 0.71 0.68 0.45 0.37 0.33 0.38 0.47 0.53 0.51 0.48 0.46 0.44 0.46 0.57 0.76 0.88 1.16 1.46 1.73 1.27 1.01 1.06 1.06 0.96 1.05
0.87 0.84 1.07 1.41 1.38 1.30 1.23 1.29 1.34 1.37 1.35 1.23 0.95 0.77 0.72 0.77 0.77 0.75 0.81 0.68 0.57 0.49 0.41 0.43 0.49 0.53 0.49 0.46 0.46 0.45 0.52 0.63 0.74 0.98 1.25 1.53 1.63 1.23 0.96 1.00 1.06 1.15 1.13
0.81 0.76 0.84 1.20 1.27 1.22 1.23 1.37 1.42 1.44 1.42 1.34 1.10 0.92 0.81 0.77 0.77 0.79 0.85 0.72 0.66 0.58 0.54 0.56 0.57 0.56 0.52 0.50 0.47 0.47 0.51 0.55 0.61 0.86 1.09 1.53 1.40 1.08 0.91 0.96 1.01 1.06 1.12
0.96 0.84 0.77 1.00 1.11 1.13 1.19 1.29 1.33 1.34 1.31 1.26 1.09 0.94 0.87 0.82 0.79 0.87 0.92 0.81 0.74 0.65 0.58 0.60 0.62 0.62 0.58 0.54 0.50 0.50 0.52 0.47 0.47 0.68 0.92 1.27 1.28 1.14 0.96 1.00 1.12 1.07 1.11
1.13 1.04 0.88 0.88 0.97 1.13 1.25 1.26 1.21 1.15 1.15 1.12 1.01 0.95 0.88 0.84 0.78 0.81 0.84 0.78 0.77 0.78 0.72 0.66 0.64 0.64 0.59 0.58 0.55 0.55 0.54 0.47 0.51 0.65 0.70 1.10 1.18 1.14 1.00 1.02 1.15 1.21 1.23
1.34 1.14 0.93 0.83 0.86 0.91 0.98 1.12 1.19 1.19 1.15 1.13 0.99 0.89 0.84 0.78 0.71 0.73 0.69 0.66 0.72 0.83 0.89 0.80 0.71 0.68 0.63 0.58 0.56 0.59 0.57 0.43 0.49 0.60 0.74 0.88 1.05 1.12 1.03 0.92 0.91 0.95 1.04
1.13 1.02 1.02 0.97 0.94 0.97 0.92 0.96 1.14 1.22 1.21 1.09 1.00 0.93 0.84 0.65 0.56 0.62 0.59 0.70 0.80 0.93 0.99 0.97 0.89 0.78 0.69 0.58 0.56 0.59 0.48 0.38 0.52 0.61 0.76 0.80 1.04 1.14 1.06 0.91 0.82 0.75 0.83
0.83 0.82 0.86 0.90 0.96 0.99 0.90 1.10 1.32 1.20 1.05 0.85 0.87 0.80 0.77 0.72 0.69 0.57 0.61 0.79 0.92 0.96 0.95 0.99 1.02 0.89 0.69 0.50 0.51 0.50 0.35 0.34 0.42 0.47 0.57 0.80 1.04 1.12 1.07 0.95 0.83 0.73 0.76
0.71 0.70 0.67 0.71 0.80 0.88 1.00 1.22 1.54 1.57 1.34 1.15 0.97 0.90 0.87 0.76 0.68 0.63 0.62 0.68 0.76 0.79 0.70 0.75 0.80 0.66 0.55 0.53 0.55 0.44 0.35 0.36 0.36 0.42 0.57 0.84 1.05 1.13 1.05 0.97 0.94 0.84 0.79
0.56 0.60 0.50 0.47 0.60 0.70 0.81 0.93 1.22 1.29 1.22 1.08 0.91 0.84 0.90 0.85 0.75 0.71 0.69 0.73 0.74 0.73 0.78 0.81 0.85 0.77 0.61 0.55 0.54 0.55 0.49 0.42 0.43 0.54 0.67 0.78 1.04 1.17 1.12 1.06 1.03 0.94 0.89
0.57 0.61 0.56 0.47 0.48 0.52 0.56 0.64 0.76 0.92 1.03 1.03 0.99 0.83 0.82 0.81 0.76 0.78 0.73 0.78 0.70 0.68 0.76 0.83 0.83 0.84 0.76 0.63 0.59 0.59 0.66 0.58 0.53 0.57 0.72 0.84 1.09 1.28 1.35 1.24 1.11 1.04 1.02
0.52 0.64 0.63 0.53 0.49 0.50 0.48 0.47 0.48 0.61 0.76 0.92 0.94 0.83 0.85 0.86 0.81 0.86 0.83 0.83 0.79 0.73 0.76 0.92 0.86 0.90 0.88 0.81 0.64 0.61 0.65 0.62 0.57 0.58 0.68 0.92 1.02 1.08 1.33 1.49 1.40 1.26 1.13
0.46 0.51 0.58 0.55 0.57 0.60 0.60 0.59 0.49 0.52 0.59 0.73 0.85 0.84 0.90 0.85 0.77 0.82 0.85 0.82 0.81 0.82 0.82 0.88 0.89 0.94 0.85 0.79 0.71 0.66 0.64 0.60 0.53 0.59 0.61 0.69 0.67 0.73 0.98 1.28 1.47 1.41 1.31
0.47 0.51 0.55 0.57 0.63 0.69 0.74 0.75 0.69 0.74 0.76 0.77 0.92 0.89 0.84 0.87 0.84 0.84 0.90 0.91 0.95 0.99 0.96 0.96 0.99 1.01 0.95 0.93 0.89 0.84 0.68 0.66 0.61 0.62 0.60 0.60 0.64 0.59 0.71 0.86 1.09 1.23 1.37
0.44 0.45 0.48 0.57 0.62 0.65 0.73 0.85 0.98 1.03 1.02 0.98 1.01 0.97 0.87 0.85 0.91 1.03 1.07 1.12 1.09 1.10 1.12 1.09 1.10 1.03 1.02 1.01 0.93 0.91 0.79 0.74 0.72 0.63 0.69 0.69 0.69 0.64 0.66 0.61 0.67 0.75 0.96
0.35 0.37 0.42 0.49 0.65 0.81 0.88 0.92 1.08 1.13 1.21 1.30 1.35 1.22 1.09 1.10 1.22 1.37 1.46 1.40 1.39 1.37 1.35 1.31 1.39 1.28 1.11 1.09 1.02 0.95 0.82 0.73 0.79 0.75 0.77 0.77 0.80 0.77 0.72 0.61 0.56 0.49 0.59
0.23 0.29 0.34 0.40 0.55 0.70 0.80 0.91 1.10 1.28 1.46 1.62 1.74 1.63 1.49 1.45 1.61 1.72 1.65 1.73 1.77 1.63 1.62 1.66 1.73 1.68 1.41 1.26 1.33 1.22 0.95 0.72 0.78 0.78 0.75 0.79 0.86 0.98 1.01 0.87 0.72 0.63 0.60
0.14 0.18 0.23 0.31 0.42 0.55 0.71 0.94 1.16 1.46 1.55 1.64 1.78 1.82 1.76 1.69 1.84 1.88 1.96 2.02 2.05 2.04 2.00 1.88 1.96 2.05 1.79 1.56 1.64 1.91 1.51 1.11 0.79 0.65 0.74 0.77 0.87 1.12 1.19 1.03 0.83 0.74 0.70
0.10 0.11 0.18 0.29 0.44 0.66 0.89 1.20 1.50 1.73 1.81 1.86 1.81 1.88 1.97 2.02 2.08 2.10 2.16 2.22 2.22 2.07 2.05 2.14 2.24 2.55 2.35 2.00 1.83 2.05 1.83 1.51 1.22 0.82 0.76 0.83 0.92 1.10 1.22 1.24 1.12 1.04 0.94
0.12 0.16 0.26 0.42 0.62 0.90 1.23 1.58 1.82 2.05 2.14 1.99 1.97 2.01 2.03 1.98 2.01 2.12 2.14 2.13 2.10 2.03 2.09 2.15 2.19 2.55 2.72 2.42 2.11 1.78 1.57 1.53 1.56 1.25 0.92 0.88 0.98 1.00 1.12 1.20 1.15 1.22 1.19
0.25 0.32 0.48 0.72 1.01 1.29 1.52 1.70 1.92 2.05 2.07 2.05 2.01 2.00 1.93 1.91 1.87 1.91 1.93 2.01 2.04 2.08 2.14 2.29 2.39 2.61 2.63 2.62 2.45 2.26 2.05 1.74 1.40 1.42 1.35 1.11 1.09 1.01 1.10 1.23 1.27 1.35 1.34
0.42 0.55 0.73 0.91 1.19 1.36 1.48 1.60 1.79 1.94 1.99 2.01 1.99 1.99 1.98 1.95 1.85 1.79 1.76 1.82 1.94 2.11 2.17 2.25 2.38 2.60 2.70 2.78 2.70 2.45 2.34 2.17 1.86 1.73 1.48 1.35 1.34 1.16 1.13 1.16 1.20 1.32 1.44

GEFSSE_prec_meanprecacc_174.txt.gz
Total_Precipitation_Accumulation
1.43 1.28 1.90 1.94 1.62 1.35 1.29 1.32 1.21 1.09 1.12 1.05 0.82 0.74 0.73 0.73 0.65 0.54 0.43 0.36 0.36 0.35 0.39 0.42 0.42 0.44 0.40 0.35 0.37 0.46 0.50 0.45 0.41 0.42 0.54 0.63 0.65 0.74 0.82 0.93 1.20 1.47 1.16
1.21 1.11 1.77 1.96 1.70 1.43 1.24 1.24 1.26 1.17 1.19 1.05 0.90 0.79 0.79 0.74 0.66 0.55 0.42 0.34 0.34 0.34 0.35 0.38 0.43 0.42 0.40 0.42 0.46 0.52 0.50 0.41 0.35 0.41 0.66 0.85 0.80 0.73 0.72 0.81 1.19 1.41 1.12
0.95 0.93 1.36 1.88 1.75 1.47 1.27 1.23 1.24 1.20 1.24 1.15 1.06 0.93 0.83 0.75 0.67 0.56 0.43 0.40 0.39 0.36 0.35 0.37 0.48 0.47 0.43 0.50 0.52 0.53 0.51 0.40 0.37 0.51 0.92 1.58 1.21 0.77 0.69 0.80 1.05 0.98 0.98
0.85 0.84 1.04 1.55 1.51 1.30 1.15 1.19 1.24 1.19 1.29 1.24 1.03 0.86 0.72 0.71 0.72 0.60 0.53 0.59 0.44 0.36 0.35 0.40 0.50 0.52 0.49 0.52 0.55 0.52 0.52 0.52 0.57 0.67 1.10 1.58 1.60 1.03 0.91 1.04 1.07 0.98 1.05
0.88 0.88 1.21 1.55 1.48 1.33 1.19 1.28 1.36 1.30 1.31 1.17 0.90 0.72 0.68 0.71 0.75 0.75 0.74 0.70 0.46 0.38 0.34 0.38 0.48 0.54 0.54 0.52 0.49 0.47 0.49 0.59 0.77 0.88 1.17 1.48 1.77 1.30 1.04 1.11 1.12 1.04 1.13
0.91 0.89 1.14 1.49 1.46 1.36 1.27 1.33 1.38 1.39 1.36 1.24 0.97 0.79 0.75 0.79 0.78 0.76 0.83 0.70 0.58 0.49 0.41 0.44 0.50 0.55 0.53 0.50 0.50 0.48 0.54 0.65 0.75 0.99 1.27 1.55 1.66 1.28 1.01 1.05 1.11 1.21 1.18
0.85 0.81 0.90 1.25 1.33 1.28 1.27 1.41 1.46 1.47 1.45 1.37 1.13 0.95 0.83 0.78 0.78 0.80 0.87 0.74 0.67 0.59 0.55 0.56 0.57 0.57 0.54 0.52 0.48 0.49 0.54 0.57 0.62 0.86 1.10 1.55 1.46 1.12 0.97 1.03 1.07 1.11 1.15
1.00 0.88 0.82 1.06 1.17 1.18 1.23 1.32 1.36 1.37 1.33 1.29 1.11 0.96 0.89 0.85 0.82 0.89 0.94 0.83 0.75 0.66 0.59 0.60 0.62 0.62 0.58 0.55 0.51 0.52 0.53 0.48 0.48 0.68 0.93 1.30 1.32 1.19 1.01 1.04 1.18 1.11 1.12
1.17 1.07 0.91 0.91 1.02 1.19 1.31 1.31 1.24 1.17 1.17 1.13 1.03 0.97 0.90 0.86 0.81 0.84 0.87 0.80 0.79 0.79 0.73 0.66 0.64 0.64 0.60 0.58 0.56 0.56 0.55 0.48 0.52 0.66 0.71 1.13 1.22 1.19 1.04 1.05 1.19 1.23 1.23
1.37 1.17 0.96 0.86 0.90 0.99 1.08 1.18 1.23 1.22 1.18 1.14 1.01 0.91 0.86 0.80 0.72 0.75 0.71 0.68 0.75 0.85 0.91 0.81 0.72 0.69 0.64 0.59 0.57 0.60 0.57 0.44 0.50 0.62 0.78 0.91 1.09 1.17 1.07 0.95 0.94 0.97 1.05
1.16 1.04 1.04 1.00 1.01 1.05 1.00 1.02 1.19 1.26 1.25 1.10 1.02 0.95 0.85 0.65 0.57 0.63 0.60 0.71 0.81 0.95 1.00 0.98 0.90 0.79 0.69 0.59 0.57 0.59 0.49 0.39 0.53 0.63 0.82 0.85 1.08 1.19 1.11 0.94 0.85 0.78 0.85
0.85 0.83 0.88 0.91 1.00 1.02 0.94 1.17 1.37 1.24 1.09 0.87 0.88 0.80 0.77 0.72 0.70 0.58 0.61 0.79 0.93 0.97 0.96 0.99 1.02 0.89 0.69 0.50 0.52 0.51 0.36 0.35 0.43 0.49 0.61 0.85 1.10 1.18 1.12 0.98 0.85 0.74 0.78
0.75 0.73 0.68 0.72 0.81 0.90 1.04 1.28 1.56 1.60 1.37 1.17 0.98 0.90 0.87 0.76 0.68 0.63 0.62 0.69 0.76 0.79 0.70 0.75 0.80 0.66 0.56 0.53 0.55 0.44 0.35 0.37 0.38 0.45 0.61 0.89 1.11 1.17 1.08 1.00 0.95 0.85 0.80
0.60 0.66 0.53 0.48 0.61 0.71 0.82 0.95 1.24 1.31 1.24 1.10 0.92 0.84 0.90 0.85 0.75 0.71 0.69 0.73 0.74 0.73 0.79 0.81 0.85 0.77 0.61 0.55 0.54 0.56 0.49 0.42 0.45 0.56 0.70 0.83 1.10 1.21 1.15 1.09 1.05 0.96 0.90
0.59 0.65 0.58 0.49 0.49 0.53 0.58 0.64 0.77 0.93 1.04 1.04 0.99 0.83 0.82 0.81 0.76 0.78 0.73 0.78 0.70 0.68 0.76 0.83 0.83 0.84 0.76 0.64 0.59 0.59 0.67 0.59 0.54 0.59 0.75 0.88 1.15 1.33 1.39 1.28 1.14 1.06 1.04
0.53 0.66 0.65 0.54 0.49 0.50 0.48 0.47 0.48 0.61 0.76 0.92 0.94 0.83 0.85 0.86 0.81 0.86 0.83 0.83 0.79 0.73 0.76 0.92 0.86 0.90 0.89 0.82 0.65 0.62 0.66 0.63 0.58 0.59 0.70 0.94 1.07 1.15 1.37 1.53 1.43 1.28 1.16
0.46 0.51 0.58 0.55 0.57 0.60 0.60 0.59 0.49 0.52 0.60 0.73 0.85 0.84 0.90 0.85 0.77 0.82 0.85 0.82 0.81 0.82 0.82 0.88 0.90 0.95 0.86 0.80 0.72 0.68 0.66 0.62 0.55 0.61 0.62 0.71 0.70 0.80 1.05 1.33 1.51 1.44 1.34
0.48 0.51 0.55 0.57 0.63 0.69 0.74 0.76 0.70 0.74 0.76 0.77 0.92 0.89 0.84 0.87 0.84 0.84 0.90 0.91 0.95 0.99 0.96 0.97 1.01 1.02 0.96 0.94 0.91 0.86 0.69 0.68 0.61 0.63 0.61 0.60 0.65 0.61 0.75 0.90 1.13 1.26 1.39
0.45 0.46 0.48 0.57 0.62 0.65 0.73 0.85 0.98 1.03 1.02 0.98 1.01 0.97 0.87 0.85 0.91 1.03 1.07 1.12 1.09 1.11 1.13 1.09 1.11 1.04 1.03 1.03 0.95 0.93 0.81 0.76 0.73 0.64 0.70 0.69 0.70 0.65 0.67 0.62 0.69 0.79 1.00
0.36 0.39 0.43 0.49 0.65 0.81 0.88 0.92 1.08 1.13 1.21 1.30 1.35 1.22 1.09 1.10 1.22 1.37 1.46 1.40 1.39 1.37 1.36 1.32 1.40 1.29 1.11 1.10 1.04 0.97 0.84 0.75 0.81 0.77 0.77 0.77 0.81 0.78 0.72 0.62 0.57 0.51 0.61
0.24 0.30 0.35 0.40 0.55 0.70 0.80 0.92 1.11 1.28 1.46 1.62 1.74 1.63 1.49 1.45 1.61 1.72 1.65 1.73 1.77 1.63 1.62 1.67 1.73 1.68 1.42 1.28 1.35 1.24 0.97 0.74 0.80 0.79 0.76 0.80 0.87 0.98 1.01 0.88 0.73 0.65 0.62
0.15 0.19 0.24 0.31 0.42 0.55 0.71 0.94 1.16 1.46 1.55 1.64 1.78 1.82 1.76 1.69 1.84 1.88 1.96 2.02 2.05 2.04 2.00 1.89 1.97 2.05 1.80 1.57 1.66 1.94 1.53 1.14 0.81 0.66 0.75 0.78 0.88 1.12 1.19 1.03 0.84 0.77 0.75
0.11 0.12 0.18 0.30 0.44 0.66 0.89 1.20 1.50 1.73 1.81 1.86 1.81 1.88 1.97 2.02 2.08 2.10 2.16 2.22 2.22 2.07 2.05 2.14 2.24 2.55 2.36 2.02 1.84 2.06 1.85 1.53 1.25 0.84 0.77 0.84 0.93 1.10 1.23 1.26 1.15 1.07 0.97
0.12 0.16 0.26 0.42 0.63 0.90 1.23 1.58 1.82 2.05 2.15 2.00 1.98 2.01 2.03 1.98 2.01 2.12 2.14 2.13 2.10 2.03 2.09 2.15 2.19 2.56 2.73 2.43 2.12 1.79 1.57 1.54 1.57 1.26 0.94 0.89 0.99 1.01 1.13 1.22 1.18 1.24 1.21
0.25 0.33 0.48 0.72 1.01 1.29 1.52 1.70 1.92 2.05 2.07 2.05 2.02 2.00 1.93 1.91 1.87 1.91 1.93 2.01 2.04 2.08 2.14 2.29 2.39 2.61 2.63 2.63 2.46 2.27 2.05 1.75 1.40 1.43 1.37 1.13 1.11 1.03 1.13 1.25 1.29 1.36 1.36
0.42 0.55 0.73 0.91 1.19 1.36 1.48 1.60 1.79 1.94 1.99 2.01 1.99 1.99 1.98 1.95 1.85 1.79 1.76 1.82 1.94 2.11 2.17 2.25 2.38 2.60 2.71 2.78 2.71 2.45 2.35 2.17 1.87 1.74 1.49 1.36 1.36 1.18 1.15 1.18 1.22 1.34 1.46

GEFSSE_prec_meanprecacc_180.txt.gz
Total_Precipitation_Accumulation
1.56 1.36 1.96 2.02 1.70 1.41 1.35 1.40 1.27 1.16 1.18 1.10 0.87 0.79 0.76 0.76 0.68 0.57 0.45 0.38 0.37 0.38 0.42 0.43 0.44 0.46 0.42 0.36 0.38 0.52 0.56 0.48 0.43 0.44 0.56 0.64 0.66 0.75 0.84 0.99 1.30 1.58 1.24
1.29 1.17 1.84 2.04 1.79 1.51 1.32 1.31 1.31 1.22 1.22 1.09 0.94 0.83 0.81 0.77 0.70 0.59 0.44 0.35 0.35 0.35 0.36 0.39 0.44 0.44 0.42 0.44 0.47 0.56 0.53 0.43 0.36 0.43 0.68 0.89 0.82 0.75 0.75 0.87 1.26 1.51 1.20
1.01 0.98 1.42 1.94 1.82 1.53 1.33 1.27 1.29 1.24 1.27 1.18 1.08 0.94 0.84 0.76 0.70 0.59 0.45 0.41 0.41 0.38 0.36 0.39 0.50 0.50 0.46 0.53 0.54 0.54 0.52 0.41 0.38 0.53 0.99 1.72 1.30 0.81 0.75 0.86 1.10 1.03 1.04
0.92 0.91 1.10 1.62 1.58 1.35 1.21 1.23 1.28 1.23 1.31 1.26 1.05 0.87 0.73 0.72 0.74 0.62 0.55 0.60 0.45 0.38 0.37 0.42 0.52 0.55 0.53 0.55 0.57 0.54 0.54 0.53 0.59 0.72 1.21 1.73 1.72 1.09 0.96 1.10 1.11 1.02 1.10
0.93 0.94 1.27 1.63 1.55 1.39 1.24 1.32 1.39 1.31 1.32 1.18 0.91 0.74 0.69 0.72 0.76 0.76 0.76 0.72 0.47 0.39 0.35 0.40 0.50 0.57 0.56 0.55 0.52 0.49 0.50 0.60 0.81 0.95 1.26 1.59 1.88 1.38 1.08 1.17 1.16 1.08 1.19
0.93 0.92 1.18 1.53 1.52 1.41 1.31 1.36 1.40 1.40 1.37 1.25 0.99 0.80 0.76 0.80 0.79 0.77 0.84 0.72 0.59 0.50 0.42 0.45 0.52 0.58 0.55 0.52 0.53 0.50 0.57 0.69 0.81 1.05 1.33 1.65 1.77 1.34 1.05 1.09 1.14 1.24 1.22
0.89 0.84 0.93 1.29 1.37 1.31 1.30 1.44 1.49 1.48 1.46 1.38 1.14 0.97 0.85 0.80 0.79 0.81 0.87 0.75 0.68 0.60 0.56 0.58 0.60 0.60 0.56 0.53 0.49 0.50 0.56 0.61 0.68 0.92 1.16 1.62 1.53 1.17 1.00 1.04 1.09 1.13 1.17
1.04 0.93 0.84 1.08 1.19 1.19 1.24 1.35 1.39 1.39 1.34 1.30 1.12 0.97 0.90 0.86 0.82 0.90 0.96 0.85 0.76 0.67 0.60 0.61 0.63 0.64 0.60 0.56 0.52 0.53 0.55 0.50 0.53 0.73 0.99 1.35 1.37 1.23 1.05 1.07 1.20 1.14 1.16
1.21 1.10 0.93 0.92 1.03 1.20 1.31 1.33 1.27 1.19 1.18 1.14 1.03 0.97 0.91 0.87 0.81 0.84 0.88 0.82 0.81 0.80 0.74 0.67 0.65 0.65 0.61 0.60 0.57 0.58 0.57 0.49 0.56 0.71 0.76 1.17 1.25 1.22 1.06 1.07 1.21 1.25 1.26
1.40 1.19 0.97 0.87 0.91 0.99 1.08 1.19 1.26 1.24 1.19 1.15 1.02 0.91 0.86 0.81 0.72 0.75 0.72 0.69 0.76 0.85 0.91 0.82 0.73 0.69 0.65 0.61 0.58 0.61 0.58 0.46 0.55 0.66 0.82 0.94 1.12 1.20 1.10 0.96 0.95 0.99 1.07
1.18 1.06 1.05 1.01 1.03 1.06 1.01 1.04 1.22 1.28 1.26 1.11 1.02 0.96 0.86 0.67 0.58 0.65 0.61 0.72 0.81 0.95 1.01 0.98 0.90 0.79 0.70 0.60 0.58 0.60 0.50 0.42 0.56 0.67 0.86 0.89 1.11 1.21 1.13 0.96 0.86 0.80 0.87
0.86 0.85 0.89 0.93 1.03 1.06 0.97 1.19 1.40 1.26 1.11 0.89 0.90 0.81 0.79 0.73 0.71 0.59 0.62 0.80 0.93 0.97 0.96 1.00 1.03 0.90 0.70 0.51 0.53 0.52 0.38 0.38 0.46 0.52 0.65 0.90 1.13 1.20 1.15 1.02 0.87 0.76 0.79
0.76 0.75 0.70 0.74 0.83 0.93 1.07 1.33 1.59 1.63 1.40 1.19 0.99 0.91 0.88 0.77 0.69 0.64 0.63 0.69 0.77 0.80 0.71 0.76 0.80 0.67 0.56 0.54 0.56 0.44 0.37 0.40 0.42 0.49 0.65 0.93 1.15 1.20 1.12 1.04 0.98 0.88 0.81
0.61 0.69 0.55 0.50 0.63 0.75 0.87 1.01 1.26 1.34 1.27 1.12 0.94 0.86 0.91 0.86 0.76 0.72 0.69 0.74 0.75 0.73 0.79 0.82 0.86 0.78 0.62 0.55 0.55 0.56 0.50 0.44 0.48 0.59 0.74 0.87 1.15 1.26 1.19 1.13 1.08 0.99 0.93
0.60 0.67 0.62 0.52 0.52 0.56 0.61 0.68 0.79 0.96 1.07 1.06 1.00 0.84 0.83 0.82 0.77 0.79 0.74 0.78 0.71 0.69 0.78 0.84 0.83 0.85 0.76 0.64 0.59 0.60 0.67 0.61 0.57 0.61 0.77 0.90 1.19 1.38 1.45 1.32 1.17 1.10 1.08
0.53 0.66 0.67 0.57 0.52 0.53 0.50 0.49 0.50 0.65 0.79 0.93 0.94 0.83 0.85 0.86 0.81 0.86 0.83 0.83 0.80 0.74 0.78 0.93 0.87 0.91 0.90 0.82 0.66 0.63 0.67 0.64 0.61 0.64 0.74 0.96 1.09 1.17 1.41 1.57 1.45 1.31 1.19
0.48 0.53 0.59 0.56 0.58 0.61 0.60 0.60 0.50 0.54 0.61 0.74 0.86 0.85 0.90 0.85 0.77 0.82 0.85 0.82 0.81 0.83 0.83 0.88 0.91 0.96 0.88 0.82 0.75 0.70 0.68 0.64 0.57 0.63 0.66 0.74 0.73 0.82 1.07 1.35 1.53 1.46 1.36
0.50 0.54 0.58 0.59 0.64 0.69 0.74 0.77 0.70 0.75 0.77 0.78 0.92 0.89 0.84 0.87 0.84 0.84 0.90 0.91 0.95 0.99 0.96 0.97 1.01 1.04 0.99 0.98 0.95 0.89 0.72 0.71 0.64 0.65 0.65 0.65 0.69 0.65 0.77 0.91 1.14 1.27 1.41
0.46 0.47 0.51 0.59 0.63 0.65 0.73 0.86 0.98 1.03 1.02 0.98 1.01 0.97 0.87 0.85 0.91 1.03 1.07 1.12 1.09 1.11 1.13 1.10 1.11 1.05 1.04 1.05 0.98 0.96 0.83 0.79 0.77 0.66 0.73 0.72 0.72 0.67 0.70 0.64 0.71 0.81 1.02
0.36 0.39 0.44 0.52 0.68 0.81 0.89 0.92 1.08 1.13 1.21 1.30 1.35 1.22 1.09 1.10 1.22 1.37 1.46 1.40 1.39 1.38 1.37 1.33 1.41 1.30 1.13 1.12 1.05 0.99 0.86 0.76 0.83 0.80 0.80 0.79 0.82 0.80 0.74 0.64 0.60 0.52 0.62
0.24 0.30 0.36 0.41 0.57 0.71 0.80 0.92 1.11 1.29 1.46 1.62 1.74 1.63 1.49 1.45 1.61 1.72 1.65 1.73 1.77 1.64 1.63 1.68 1.75 1.69 1.44 1.29 1.37 1.26 0.99 0.75 0.82 0.81 0.78 0.82 0.88 0.99 1.01 0.89 0.75 0.67 0.64
0.15 0.20 0.25 0.32 0.43 0.56 0.71 0.94 1.16 1.46 1.55 1.64 1.78 1.82 1.76 1.69 1.84 1.88 1.96 2.02 2.06 2.05 2.01 1.90 1.98 2.07 1.81 1.59 1.70 1.98 1.57 1.16 0.83 0.67 0.76 0.79 0.89 1.13 1.20 1.03 0.85 0.78 0.76
0.11 0.13 0.19 0.30 0.45 0.66 0.89 1.20 1.50 1.73 1.81 1.86 1.82 1.88 1.97 2.02 2.08 2.10 2.16 2.22 2.22 2.07 2.06 2.15 2.24 2.57 2.38 2.03 1.86 2.10 1.89 1.55 1.27 0.86 0.80 0.85 0.94 1.12 1.24 1.27 1.15 1.08 0.98
0.12 0.16 0.27 0.43 0.63 0.90 1.24 1.58 1.82 2.05 2.15 2.00 1.98 2.02 2.03 1.98 2.01 2.12 2.14 2.13 2.10 2.04 2.10 2.16 2.19 2.57 2.75 2.45 2.13 1.80 1.59 1.55 1.60 1.29 0.96 0.91 1.01 1.03 1.15 1.23 1.18 1.24 1.21
0.26 0.33 0.49 0.73 1.02 1.29 1.52 1.70 1.92 2.05 2.07 2.05 2.02 2.01 1.94 1.91 1.87 1.91 1.93 2.01 2.04 2.09 2.14 2.30 2.40 2.62 2.64 2.64 2.47 2.28 2.07 1.77 1.43 1.46 1.40 1.15 1.12 1.04 1.13 1.26 1.30 1.37 1.38
0.42 0.56 0.73 0.91 1.19 1.37 1.48 1.60 1.79 1.94 1.99 2.01 1.99 1.99 1.98 1.95 1.85 1.79 1.76 1.82 1.94 2.11 2.17 2.25 2.38 2.61 2.71 2.79 2.71 2.46 2.36 2.19 1.89 1.77 1.53 1.39 1.38 1.19 1.16 1.19 1.22 1.35 1.49

GEFSSE_prec_meanprecacc_186.txt.gz
Total_Precipitation_Accumulation
1.61 1.45 2.10 2.11 1.77 1.47 1.39 1.42 1.30 1.19 1.20 1.12 0.89 0.80 0.78 0.79 0.70 0.59 0.48 0.39 0.38 0.38 0.43 0.44 0.45 0.48 0.45 0.39 0.41 0.55 0.59 0.51 0.45 0.47 0.60 0.67 0.69 0.77 0.87 1.03 1.35 1.62 1.28
1.33 1.25 1.95 2.10 1.84 1.54 1.34 1.34 1.33 1.24 1.25 1.10 0.96 0.85 0.83 0.79 0.71 0.60 0.45 0.37 0.37 0.36 0.37 0.40 0.46 0.45 0.43 0.46 0.51 0.60 0.57 0.45 0.38 0.45 0.72 0.92 0.85 0.78 0.78 0.91 1.31 1.54 1.25
1.04 1.04 1.50 1.99 1.85 1.56 1.35 1.30 1.31 1.25 1.29 1.20 1.09 0.95 0.86 0.78 0.71 0.60 0.46 0.43 0.43 0.39 0.38 0.41 0.51 0.51 0.47 0.55 0.57 0.58 0.56 0.44 0.41 0.56 1.02 1.73 1.32 0.84 0.79 0.91 1.14 1.06 1.08
0.97 0.96 1.13 1.65 1.61 1.38 1.22 1.25 1.29 1.24 1.32 1.26 1.05 0.87 0.74 0.73 0.75 0.63 0.56 0.62 0.47 0.39 0.38 0.42 0.52 0.56 0.54 0.58 0.60 0.57 0.56 0.56 0.62 0.75 1.24 1.74 1.74 1.13 1.00 1.13 1.15 1.05 1.13
0.99 0.98 1.31 1.67 1.58 1.41 1.26 1.33 1.40 1.33 1.33 1.19 0.92 0.75 0.70 0.73 0.78 0.78 0.77 0.73 0.49 0.40 0.36 0.40 0.51 0.58 0.58 0.58 0.56 0.53 0.54 0.63 0.85 0.97 1.27 1.60 1.90 1.42 1.12 1.20 1.19 1.11 1.22
0.99 0.96 1.23 1.58 1.54 1.43 1.32 1.36 1.41 1.42 1.38 1.26 0.99 0.81 0.77 0.81 0.80 0.78 0.85 0.73 0.61 0.52 0.43 0.46 0.54 0.59 0.57 0.55 0.56 0.53 0.60 0.73 0.85 1.07 1.34 1.66 1.80 1.38 1.09 1.12 1.16 1.26 1.25
0.91 0.86 0.97 1.35 1.39 1.32 1.31 1.44 1.49 1.50 1.48 1.39 1.15 0.97 0.86 0.80 0.80 0.82 0.88 0.76 0.69 0.62 0.58 0.60 0.62 0.61 0.57 0.56 0.52 0.53 0.59 0.64 0.71 0.95 1.18 1.65 1.58 1.23 1.05 1.08 1.12 1.16 1.20
1.06 0.93 0.85 1.11 1.21 1.21 1.25 1.35 1.40 1.40 1.36 1.31 1.13 0.98 0.90 0.87 0.83 0.91 0.97 0.85 0.77 0.67 0.61 0.63 0.66 0.65 0.61 0.58 0.55 0.56 0.58 0.54 0.56 0.78 1.02 1.39 1.45 1.29 1.12 1.11 1.23 1.16 1.18
1.21 1.12 0.96 0.94 1.04 1.22 1.34 1.34 1.28 1.20 1.19 1.15 1.04 0.98 0.92 0.88 0.82 0.85 0.89 0.82 0.81 0.81 0.75 0.70 0.69 0.68 0.63 0.62 0.61 0.61 0.60 0.52 0.58 0.74 0.79 1.21 1.32 1.27 1.11 1.10 1.23 1.28 1.29
1.40 1.20 0.98 0.88 0.91 1.00 1.09 1.20 1.27 1.25 1.20 1.16 1.02 0.92 0.87 0.82 0.73 0.76 0.73 0.70 0.76 0.86 0.92 0.84 0.76 0.73 0.67 0.63 0.62 0.63 0.60 0.48 0.56 0.67 0.83 0.98 1.18 1.25 1.14 1.00 0.98 1.01 1.10
1.18 1.06 1.05 1.01 1.03 1.07 1.01 1.05 1.23 1.29 1.27 1.12 1.03 0.96 0.86 0.67 0.58 0.65 0.61 0.73 0.83 0.97 1.02 0.99 0.92 0.82 0.72 0.62 0.62 0.62 0.51 0.43 0.57 0.69 0.88 0.93 1.16 1.26 1.18 1.00 0.88 0.81 0.89
0.87 0.85 0.90 0.93 1.03 1.06 0.97 1.20 1.41 1.26 1.12 0.90 0.90 0.82 0.79 0.73 0.71 0.59 0.62 0.81 0.95 0.99 0.97 1.01 1.05 0.91 0.71 0.52 0.55 0.54 0.39 0.39 0.47 0.54 0.68 0.94 1.18 1.25 1.19 1.05 0.89 0.78 0.81
0.76 0.75 0.70 0.74 0.83 0.93 1.08 1.34 1.60 1.63 1.41 1.20 1.00 0.91 0.88 0.77 0.69 0.64 0.63 0.69 0.77 0.80 0.72 0.77 0.81 0.68 0.57 0.55 0.56 0.45 0.38 0.41 0.44 0.50 0.67 0.96 1.19 1.26 1.15 1.07 1.00 0.90 0.84
0.61 0.69 0.55 0.50 0.64 0.76 0.88 1.02 1.28 1.35 1.28 1.13 0.95 0.86 0.92 0.86 0.76 0.72 0.70 0.74 0.75 0.74 0.80 0.83 0.87 0.79 0.63 0.57 0.56 0.57 0.51 0.46 0.50 0.60 0.75 0.91 1.19 1.31 1.23 1.16 1.10 1.01 0.95
0.60 0.68 0.62 0.52 0.52 0.56 0.62 0.69 0.81 0.98 1.10 1.08 1.01 0.85 0.84 0.83 0.78 0.80 0.75 0.79 0.71 0.70 0.79 0.85 0.84 0.85 0.77 0.65 0.60 0.61 0.68 0.63 0.59 0.63 0.79 0.93 1.23 1.43 1.49 1.36 1.20 1.12 1.10
0.54 0.66 0.67 0.57 0.52 0.53 0.52 0.52 0.51 0.66 0.81 0.96 0.96 0.85 0.86 0.87 0.82 0.87 0.83 0.83 0.80 0.75 0.78 0.94 0.88 0.91 0.90 0.83 0.67 0.64 0.68 0.66 0.62 0.65 0.75 0.98 1.11 1.20 1.44 1.59 1.47 1.32 1.20
0.49 0.54 0.61 0.57 0.59 0.62 0.62 0.61 0.52 0.56 0.62 0.75 0.87 0.85 0.90 0.85 0.78 0.82 0.85 0.82 0.82 0.83 0.83 0.88 0.91 0.97 0.88 0.83 0.77 0.72 0.69 0.65 0.58 0.65 0.67 0.76 0.75 0.84 1.08 1.36 1.55 1.48 1.38
0.52 0.55 0.60 0.60 0.65 0.71 0.75 0.77 0.72 0.76 0.78 0.79 0.93 0.89 0.84 0.87 0.84 0.84 0.90 0.91 0.96 0.99 0.96 0.97 1.01 1.04 1.00 0.98 0.96 0.91 0.73 0.73 0.66 0.66 0.66 0.67 0.71 0.67 0.79 0.92 1.15 1.29 1.43
0.48 0.49 0.52 0.61 0.65 0.67 0.73 0.86 0.99 1.03 1.03 0.98 1.02 0.97 0.87 0.85 0.91 1.03 1.07 1.12 1.09 1.11 1.13 1.10 1.12 1.05 1.05 1.06 0.99 0.97 0.84 0.82 0.79 0.67 0.74 0.76 0.74 0.69 0.71 0.65 0.72 0.82 1.03
0.38 0.40 0.45 0.52 0.68 0.82 0.89 0.92 1.08 1.13 1.21 1.30 1.35 1.22 1.09 1.10 1.22 1.37 1.46 1.40 1.39 1.38 1.37 1.33 1.42 1.31 1.13 1.13 1.06 1.00 0.87 0.77 0.84 0.81 0.81 0.80 0.83 0.81 0.75 0.65 0.61 0.52 0.63
0.25 0.31 0.37 0.42 0.57 0.71 0.80 0.92 1.11 1.29 1.46 1.62 1.74 1.63 1.49 1.45 1.61 1.72 1.65 1.74 1.77 1.64 1.63 1.68 1.75 1.70 1.44 1.30 1.38 1.27 0.99 0.76 0.83 0.83 0.80 0.83 0.89 1.00 1.03 0.90 0.75 0.68 0.64
0.15 0.20 0.26 0.33 0.44 0.56 0.71 0.94 1.16 1.46 1.55 1.64 1.78 1.82 1.76 1.69 1.84 1.88 1.96 2.02 2.06 2.05 2.01 1.90 1.98 2.08 1.81 1.60 1.71 1.98 1.57 1.17 0.84 0.69 0.78 0.80 0.90 1.14 1.21 1.04 0.86 0.79 0.76
0.11 0.13 0.19 0.30 0.45 0.67 0.89 1.20 1.50 1.73 1.81 1.86 1.82 1.88 1.97 2.02 2.08 2.10 2.16 2.22 2.22 2.07 2.06 2.15 2.24 2.57 2.39 2.04 1.86 2.11 1.90 1.56 1.28 0.87 0.81 0.87 0.96 1.13 1.26 1.28 1.16 1.08 0.98
0.12 0.16 0.27 0.43 0.63 0.90 1.24 1.58 1.82 2.05 2.15 2.00 1.98 2.02 2.03 1.98 2.01 2.12 2.14 2.13 2.10 2.04 2.10 2.16 2.19 2.57 2.75 2.45 2.14 1.81 1.60 1.57 1.62 1.31 0.97 0.93 1.02 1.05 1.16 1.24 1.18 1.24 1.21
0.26 0.33 0.49 0.73 1.02 1.30 1.52 1.71 1.92 2.05 2.07 2.05 2.02 2.01 1.94 1.91 1.87 1.91 1.93 2.01 2.04 2.09 2.14 2.30 2.40 2.62 2.64 2.65 2.47 2.29 2.08 1.79 1.44 1.47 1.41 1.16 1.13 1.05 1.14 1.26 1.30 1.37 1.38
0.42 0.56 0.74 0.91 1.20 1.38 1.49 1.61 1.80 1.94 1.99 2.01 1.99 1.99 1.98 1.95 1.85 1.79 1.76 1.82 1.94 2.11 2.17 2.25 2.38 2.61 2.71 2.79 2.72 2.46 2.37 2.20 1.91 1.77 1.53 1.39 1.38 1.20 1.17 1.20 1.24 1.37 1.50

GEFSSE_prec_meanprecacc_192.txt.gz
Total_Precipitation_Accumulation
1.65 1.52 2.24 2.26 1.90 1.54 1.44 1.47 1.35 1.23 1.22 1.14 0.90 0.83 0.81 0.82 0.73 0.61 0.50 0.42 0.41 0.41 0.45 0.45 0.47 0.51 0.50 0.45 0.45 0.60 0.64 0.54 0.48 0.49 0.63 0.72 0.74 0.82 0.91 1.08 1.40 1.66 1.34
1.37 1.32 2.09 2.25 1.95 1.59 1.38 1.37 1.37 1.27 1.27 1.12 0.98 0.87 0.85 0.82 0.73 0.61 0.47 0.40 0.41 0.40 0.39 0.42 0.48 0.49 0.48 0.51 0.56 0.65 0.61 0.48 0.40 0.47 0.76 0.97 0.90 0.82 0.83 0.96 1.35 1.58 1.30
1.11 1.12 1.62 2.11 1.95 1.61 1.38 1.32 1.33 1.27 1.30 1.21 1.11 0.97 0.88 0.79 0.73 0.62 0.48 0.46 0.48 0.43 0.40 0.43 0.54 0.54 0.51 0.60 0.62 0.63 0.60 0.48 0.43 0.58 1.05 1.75 1.36 0.90 0.84 0.94 1.17 1.09 1.12
1.05 1.03 1.21 1.74 1.67 1.41 1.25 1.27 1.30 1.25 1.33 1.28 1.07 0.89 0.76 0.75 0.77 0.65 0.58 0.64 0.50 0.42 0.39 0.44 0.54 0.58 0.58 0.62 0.65 0.64 0.61 0.60 0.65 0.77 1.24 1.75 1.77 1.19 1.05 1.18 1.19 1.08 1.15
1.05 1.04 1.38 1.74 1.63 1.44 1.28 1.35 1.41 1.33 1.34 1.20 0.94 0.76 0.72 0.76 0.80 0.79 0.79 0.74 0.50 0.41 0.37 0.42 0.53 0.60 0.62 0.63 0.62 0.60 0.59 0.68 0.88 0.98 1.27 1.61 1.92 1.50 1.18 1.25 1.24 1.14 1.25
1.03 1.01 1.29 1.63 1.59 1.46 1.34 1.38 1.42 1.43 1.40 1.28 1.02 0.83 0.80 0.82 0.81 0.80 0.86 0.74 0.62 0.52 0.44 0.47 0.56 0.62 0.62 0.61 0.63 0.61 0.66 0.77 0.86 1.07 1.34 1.66 1.81 1.45 1.17 1.19 1.20 1.29 1.28
0.92 0.89 1.03 1.41 1.46 1.35 1.32 1.45 1.51 1.52 1.49 1.41 1.17 0.99 0.88 0.82 0.81 0.83 0.89 0.76 0.71 0.63 0.59 0.61 0.65 0.65 0.64 0.65 0.60 0.60 0.64 0.67 0.72 0.96 1.19 1.66 1.62 1.30 1.14 1.14 1.15 1.18 1.22
1.07 0.95 0.88 1.16 1.27 1.24 1.26 1.37 1.41 1.41 1.37 1.32 1.15 1.00 0.92 0.88 0.85 0.92 0.98 0.87 0.79 0.69 0.63 0.65 0.69 0.73 0.74 0.70 0.65 0.63 0.63 0.56 0.58 0.78 1.03 1.42 1.49 1.36 1.18 1.16 1.27 1.19 1.20
1.22 1.13 0.98 0.98 1.07 1.24 1.35 1.35 1.28 1.20 1.19 1.16 1.05 1.00 0.94 0.90 0.84 0.87 0.91 0.85 0.83 0.82 0.78 0.72 0.76 0.81 0.73 0.72 0.70 0.66 0.63 0.55 0.60 0.75 0.80 1.24 1.38 1.32 1.16 1.14 1.28 1.32 1.32
1.41 1.20 1.00 0.92 0.95 1.02 1.11 1.22 1.28 1.26 1.20 1.16 1.03 0.93 0.89 0.84 0.75 0.78 0.74 0.72 0.78 0.90 0.96 0.90 0.86 0.80 0.74 0.73 0.72 0.67 0.64 0.50 0.57 0.68 0.84 1.01 1.23 1.30 1.19 1.05 1.02 1.05 1.13
1.19 1.06 1.06 1.02 1.04 1.07 1.02 1.06 1.24 1.30 1.28 1.13 1.04 0.98 0.88 0.68 0.60 0.66 0.63 0.75 0.85 1.01 1.08 1.05 1.01 0.89 0.77 0.67 0.68 0.66 0.53 0.45 0.58 0.69 0.89 0.97 1.22 1.32 1.24 1.05 0.92 0.86 0.92
0.87 0.86 0.90 0.93 1.03 1.07 0.98 1.21 1.42 1.27 1.13 0.90 0.91 0.82 0.80 0.74 0.71 0.59 0.63 0.83 0.97 1.02 1.00 1.04 1.08 0.93 0.72 0.53 0.57 0.55 0.40 0.40 0.48 0.54 0.70 1.00 1.23 1.30 1.24 1.09 0.92 0.82 0.84
0.76 0.75 0.70 0.74 0.83 0.93 1.08 1.34 1.60 1.64 1.42 1.20 1.00 0.92 0.89 0.78 0.69 0.64 0.63 0.70 0.77 0.81 0.72 0.78 0.82 0.68 0.58 0.56 0.57 0.45 0.38 0.42 0.45 0.51 0.71 1.02 1.24 1.31 1.19 1.10 1.03 0.93 0.88
0.61 0.69 0.55 0.50 0.64 0.76 0.88 1.02 1.28 1.36 1.29 1.14 0.95 0.87 0.93 0.87 0.76 0.73 0.70 0.75 0.75 0.74 0.80 0.83 0.87 0.79 0.64 0.58 0.57 0.58 0.52 0.47 0.52 0.62 0.78 0.94 1.23 1.36 1.29 1.20 1.15 1.05 0.99
0.60 0.68 0.62 0.52 0.52 0.56 0.62 0.70 0.83 1.01 1.12 1.10 1.02 0.85 0.85 0.83 0.79 0.80 0.75 0.79 0.71 0.70 0.79 0.85 0.84 0.85 0.78 0.66 0.61 0.62 0.69 0.63 0.60 0.64 0.80 0.96 1.26 1.48 1.56 1.42 1.25 1.16 1.14
0.54 0.67 0.67 0.57 0.52 0.53 0.53 0.53 0.53 0.69 0.85 1.00 0.98 0.87 0.88 0.88 0.83 0.87 0.83 0.83 0.80 0.75 0.78 0.94 0.88 0.92 0.91 0.84 0.67 0.65 0.68 0.66 0.62 0.65 0.76 0.99 1.13 1.25 1.49 1.66 1.52 1.35 1.22
0.49 0.54 0.61 0.57 0.59 0.62 0.63 0.64 0.53 0.57 0.65 0.78 0.89 0.87 0.93 0.88 0.80 0.84 0.85 0.83 0.82 0.83 0.83 0.88 0.91 0.97 0.89 0.84 0.77 0.72 0.70 0.65 0.59 0.65 0.67 0.76 0.76 0.87 1.12 1.40 1.58 1.50 1.41
0.53 0.56 0.61 0.60 0.65 0.71 0.75 0.78 0.73 0.77 0.81 0.82 0.95 0.91 0.86 0.89 0.86 0.86 0.90 0.92 0.96 0.99 0.96 0.97 1.01 1.04 1.00 0.99 0.97 0.92 0.75 0.73 0.67 0.67 0.67 0.67 0.72 0.68 0.80 0.94 1.16 1.31 1.46
0.49 0.51 0.54 0.62 0.66 0.67 0.74 0.86 0.99 1.04 1.04 1.00 1.04 0.99 0.88 0.87 0.92 1.03 1.07 1.12 1.10 1.11 1.14 1.10 1.12 1.05 1.05 1.06 0.99 0.98 0.85 0.83 0.80 0.68 0.74 0.77 0.75 0.71 0.73 0.66 0.72 0.82 1.05
0.39 0.43 0.47 0.54 0.71 0.83 0.89 0.92 1.08 1.14 1.21 1.30 1.35 1.23 1.09 1.10 1.23 1.37 1.46 1.40 1.39 1.38 1.37 1.33 1.42 1.31 1.13 1.13 1.06 1.01 0.88 0.79 0.86 0.82 0.82 0.81 0.85 0.83 0.77 0.66 0.61 0.53 0.63
0.26 0.32 0.37 0.43 0.59 0.72 0.81 0.92 1.11 1.29 1.46 1.62 1.74 1.63 1.49 1.45 1.61 1.72 1.65 1.74 1.77 1.64 1.63 1.68 1.75 1.70 1.44 1.30 1.38 1.27 1.00 0.76 0.84 0.83 0.80 0.84 0.91 1.02 1.04 0.90 0.76 0.68 0.64
0.16 0.21 0.26 0.33 0.44 0.56 0.71 0.94 1.16 1.46 1.55 1.64 1.78 1.82 1.76 1.69 1.84 1.88 1.96 2.02 2.06 2.05 2.01 1.90 1.98 2.08 1.81 1.60 1.71 1.99 1.57 1.17 0.85 0.69 0.78 0.82 0.93 1.16 1.23 1.06 0.86 0.79 0.76
0.11 0.13 0.20 0.31 0.45 0.67 0.89 1.21 1.50 1.73 1.81 1.86 1.82 1.88 1.97 2.02 2.08 2.10 2.16 2.22 2.22 2.07 2.06 2.15 2.24 2.57 2.39 2.04 1.86 2.11 1.90 1.57 1.28 0.87 0.82 0.88 0.97 1.14 1.26 1.28 1.16 1.08 0.98
0.12 0.16 0.27 0.44 0.63 0.90 1.24 1.59 1.82 2.05 2.15 2.00 1.98 2.02 2.03 1.98 2.01 2.12 2.14 2.13 2.10 2.04 2.10 2.16 2.19 2.57 2.75 2.45 2.14 1.81 1.60 1.57 1.62 1.31 0.98 0.94 1.03 1.05 1.17 1.24 1.19 1.24 1.22
0.26 0.33 0.49 0.73 1.03 1.30 1.53 1.71 1.92 2.05 2.07 2.05 2.02 2.01 1.94 1.91 1.87 1.91 1.93 2.01 2.04 2.09 2.14 2.30 2.40 2.62 2.65 2.65 2.47 2.29 2.08 1.79 1.44 1.48 1.41 1.17 1.13 1.06 1.15 1.27 1.31 1.38 1.39
0.43 0.56 0.74 0.91 1.20 1.38 1.49 1.61 1.80 1.95 1.99 2.01 1.99 1.99 1.98 1.95 1.85 1.79 1.76 1.82 1.94 2.11 2.17 2.25 2.38 2.61 2.71 2.79 2.72 2.46 2.37 2.20 1.91 1.78 1.54 1.39 1.38 1.20 1.18 1.21 1.25 1.38 1.50